GFSNE_925_spd_000.txt.gz
Wind_Speed
34 35 35 37 34 33 33 32 16 14 14 22 23 33 38 39 44 44 39 36 33 31 29 29 28 25 22 20 17 15 14 14 14 15 14 15 15 16
33 33 34 35 35 32 32 34 33 22 16 26 26 30 35 40 41 41 41 37 33 32 29 30 26 24 22 19 18 14 13 12 11 13 13 13 14 15
34 33 35 37 35 32 32 33 33 32 15 29 30 27 31 36 37 37 36 34 33 32 30 28 26 24 20 18 15 13 11 10 11 12 12 13 14 15
32 34 37 38 37 33 32 33 33 34 28 19 30 25 27 29 33 34 34 32 34 32 28 24 23 21 18 16 13 12 10 10 11 12 13 13 15 15
29 30 33 34 36 36 35 36 35 34 32 27 27 27 26 25 23 28 31 30 29 28 24 23 21 19 17 14 12 12 12 12 12 14 14 14 15 16
29 30 32 34 35 35 35 36 35 33 30 28 29 26 15 17 21 18 15 25 26 24 25 24 21 18 15 12 12 14 14 14 14 14 14 16 17 16
29 31 32 34 37 41 39 37 34 32 30 25 19 17 10 7 17 20 20 21 24 27 27 24 20 19 18 14 15 15 14 14 14 14 16 17 16 19
27 31 32 33 33 35 39 42 46 40 30 25 21 13 18 23 19 22 18 7 4 26 28 22 18 20 18 15 16 14 15 15 15 17 17 17 18 19
28 30 33 31 32 33 34 37 39 46 48 43 26 24 28 31 28 21 22 15 8 14 23 8 17 22 18 17 15 16 17 17 16 17 17 18 20 21
29 30 30 32 33 34 35 31 34 34 39 39 36 39 34 28 39 36 26 17 15 16 15 3 11 13 15 16 16 17 16 17 18 17 18 19 20 21
29 29 31 33 33 36 36 30 32 34 32 38 40 41 39 39 37 30 23 17 3 7 16 4 6 6 11 16 18 16 14 14 15 16 18 19 19 20
30 32 32 33 34 35 35 31 26 31 31 29 22 20 21 22 28 35 35 13 6 2 14 14 9 6 2 6 6 9 11 13 15 17 17 18 18 19
31 31 33 35 39 42 41 38 34 37 27 22 18 18 22 21 19 19 25 30 14 3 13 15 8 7 4 1 5 11 11 12 13 16 18 18 17 16
32 33 35 40 48 47 42 38 41 37 20 19 16 17 18 20 23 19 19 16 15 11 23 17 8 9 6 1 2 3 6 13 16 15 11 12 15 16
33 36 44 45 44 40 36 38 37 20 19 14 14 13 19 25 26 24 19 18 15 17 16 14 8 11 10 7 3 4 7 3 17 16 10 11 16 19
35 39 39 37 31 30 33 30 19 19 15 11 12 18 24 23 25 23 20 18 15 12 9 6 7 9 10 13 12 14 14 6 10 19 19 20 19 20
42 31 29 29 26 25 21 10 5 2 4 10 13 15 18 18 21 20 17 15 6 10 9 9 8 6 9 13 11 17 16 17 19 19 18 20 22 22
27 23 23 25 23 22 14 9 4 4 8 13 14 15 16 14 17 18 17 12 10 11 9 11 9 3 5 9 19 17 12 18 19 18 19 19 20 21
20 22 22 24 24 22 17 8 4 7 11 16 15 15 15 13 14 15 14 14 12 11 11 9 5 3 1 1 7 12 19 21 21 18 20 18 20 23
21 21 24 26 26 23 22 11 9 12 15 17 18 20 19 14 11 12 13 12 11 9 7 5 5 6 4 4 3 13 16 20 18 17 19 20 25 26
25 23 27 27 29 26 19 9 11 13 16 17 19 19 19 18 12 12 15 14 13 7 3 4 2 2 6 8 4 8 20 12 16 21 20 17 16 16
26 25 29 29 29 26 18 8 8 11 14 17 16 18 20 18 14 15 16 14 11 8 4 1 2 5 5 5 4 11 19 26 22 18 18 21 15 3
27 27 30 29 30 25 17 10 9 10 11 13 16 17 19 16 17 18 16 13 10 7 3 3 5 6 10 14 15 14 19 21 16 21 20 11 13 19

GFSNE_925_spd_003.txt.gz
Wind_Speed
33 36 35 36 36 35 32 31 15 13 14 23 24 30 37 37 44 46 49 48 51 46 45 42 38 37 41 38 31 25 22 20 19 19 19 19 18 17
29 30 32 33 34 35 35 34 31 18 15 26 33 35 36 35 39 45 49 48 48 48 45 43 38 41 44 39 31 28 22 20 20 19 18 18 17 16
34 33 31 32 31 31 34 33 32 31 15 31 35 35 33 36 37 40 47 49 45 46 45 44 38 43 44 36 30 26 22 20 21 20 18 18 17 16
30 30 31 31 30 29 30 32 34 35 30 21 34 32 33 37 40 42 43 46 46 45 45 42 38 40 31 26 27 23 21 22 21 20 19 17 16 16
27 28 29 29 30 30 31 30 30 33 36 32 28 35 33 31 31 35 37 39 42 44 42 40 40 37 30 25 23 22 22 23 21 20 18 16 16 17
28 27 28 29 29 31 32 33 32 30 30 30 29 29 31 25 28 22 17 28 31 34 32 30 35 32 27 24 23 22 23 22 21 20 18 16 16 17
26 27 29 31 34 37 36 32 31 29 28 23 15 22 20 5 11 17 24 25 28 29 29 30 29 30 29 26 27 24 24 21 20 19 17 17 17 17
27 30 30 31 31 35 33 35 36 33 28 22 16 14 21 25 21 22 21 4 5 27 28 25 33 33 30 32 26 25 23 21 19 18 17 17 18 18
28 31 31 28 35 34 37 37 36 34 33 33 27 26 26 27 23 23 26 19 12 17 28 16 27 23 31 29 24 22 21 20 18 19 18 19 18 18
29 28 27 34 34 34 35 33 35 34 33 33 32 32 34 33 29 30 30 15 9 15 24 4 18 15 24 24 22 20 21 20 19 19 20 19 19 18
28 24 30 31 33 36 35 33 36 38 36 35 38 42 40 40 39 22 16 9 2 5 21 5 8 10 14 19 22 19 20 20 19 21 20 18 18 18
25 30 31 30 35 39 38 36 32 37 36 38 37 36 35 38 34 33 22 11 4 3 16 7 9 9 3 9 19 21 20 18 18 18 17 18 18 18
29 30 33 35 40 45 44 39 34 40 39 35 32 30 22 15 15 20 20 19 9 2 21 16 8 8 4 5 7 14 14 16 17 17 16 15 16 16
29 32 36 41 44 43 42 37 39 41 31 27 21 11 4 3 5 7 13 17 12 9 34 15 11 11 7 3 2 7 12 13 13 15 17 16 14 14
33 37 42 40 35 34 35 38 34 28 25 15 6 1 6 10 15 17 17 18 22 25 25 10 9 17 10 5 4 6 4 5 8 12 14 14 13 12
36 38 35 30 28 30 32 31 28 24 16 10 5 6 11 13 13 14 18 20 19 15 11 7 7 12 8 7 7 5 9 3 7 9 9 13 16 17
41 29 25 25 26 27 30 29 28 24 17 11 7 9 9 11 12 16 16 11 7 7 6 7 7 5 1 4 7 12 12 12 13 12 10 14 18 19
28 22 22 24 25 27 28 29 28 25 19 13 9 8 7 10 13 13 14 8 7 9 6 8 8 3 2 7 16 10 9 10 10 10 13 14 17 23
22 22 22 23 27 28 28 27 26 27 22 14 9 8 10 12 14 12 11 10 7 9 10 10 7 3 2 0 2 13 10 11 13 14 18 17 15 20
23 23 24 26 29 30 28 28 28 25 15 12 9 10 12 12 11 10 10 8 8 5 6 6 4 8 4 3 2 3 9 15 15 14 15 18 22 22
25 24 25 29 30 32 29 30 25 21 14 10 8 6 8 11 9 10 11 11 10 6 2 3 5 2 3 4 2 5 12 8 15 20 14 11 12 10
25 26 29 31 31 34 30 29 24 17 8 3 2 9 11 12 9 11 11 12 9 6 5 5 3 4 4 4 3 4 13 17 14 15 20 22 10 2
27 28 30 30 34 33 30 29 22 13 6 3 9 11 13 11 11 13 14 12 11 7 3 1 1 5 8 9 9 8 13 17 10 15 11 6 16 19

GFSNE_925_spd_006.txt.gz
Wind_Speed
31 30 28 27 28 28 28 28 15 17 17 22 24 33 36 37 42 42 41 45 47 50 47 49 49 50 47 46 44 44 39 36 33 29 26 23 21 20
29 30 31 28 28 26 27 28 28 18 17 26 30 31 34 35 41 41 43 42 48 48 49 48 48 51 51 49 46 44 40 36 31 28 26 24 22 21
29 30 30 29 27 27 26 25 26 26 14 29 30 34 33 36 41 43 43 45 48 49 48 49 51 48 48 48 47 46 43 36 30 28 27 24 22 21
29 29 28 27 27 27 26 27 28 29 25 19 32 29 32 34 38 38 45 49 46 48 48 50 50 48 47 50 47 45 41 32 29 27 25 22 21 23
31 28 26 25 26 28 28 27 29 31 30 27 24 31 29 30 31 37 35 35 41 50 51 51 46 48 48 46 45 48 40 35 31 28 24 23 22 24
26 22 23 24 26 28 29 27 28 30 29 27 25 27 27 29 27 22 20 31 34 30 38 40 38 41 42 43 43 39 35 31 28 27 25 24 24 23
25 24 23 28 27 25 30 32 31 29 26 22 14 21 19 16 12 20 20 22 25 34 30 31 30 35 42 43 39 38 32 31 28 24 25 24 23 23
27 29 29 29 24 33 32 30 32 32 27 20 19 14 21 25 25 22 23 10 8 24 24 30 29 28 30 34 40 38 33 26 24 23 27 23 24 24
28 31 34 29 30 38 35 34 35 32 30 31 27 27 27 31 31 25 21 21 14 15 22 12 27 22 29 32 32 30 26 25 25 27 25 26 25 22
27 30 31 27 31 34 36 38 38 39 35 32 32 38 36 37 34 34 32 28 14 15 22 5 17 16 24 29 28 25 23 25 26 26 28 25 22 21
32 32 31 32 30 34 36 35 40 42 40 37 36 40 42 42 41 36 23 9 5 5 22 9 8 7 15 22 27 23 24 24 27 27 26 23 21 20
30 30 29 33 37 40 38 36 33 35 38 41 38 36 35 35 33 29 28 10 5 2 16 9 6 8 3 6 22 22 22 24 26 25 24 22 21 21
28 28 30 36 41 43 39 34 28 41 39 33 33 30 26 27 30 25 20 19 6 2 14 18 7 6 5 3 7 21 25 24 22 22 21 20 21 22
29 30 33 40 44 39 32 31 36 37 30 29 27 23 23 22 22 14 8 5 7 8 25 15 8 8 5 3 3 12 17 19 21 22 21 20 17 19
30 34 38 37 32 30 31 35 33 28 26 24 21 23 23 20 9 1 6 14 20 20 17 11 21 21 12 4 4 7 9 12 17 19 18 19 22 22
31 33 32 31 31 31 31 29 26 27 26 26 22 27 24 8 3 2 5 11 15 17 19 18 16 14 8 13 9 8 11 5 15 16 15 15 16 18
38 27 26 27 27 27 28 28 29 28 27 25 24 22 15 4 3 7 6 5 5 4 11 14 11 11 10 11 6 10 10 6 11 15 10 11 15 17
29 22 22 25 24 27 27 29 31 29 28 28 24 19 11 6 6 5 6 7 5 8 9 6 7 5 3 2 3 9 8 7 9 11 13 10 14 15
23 21 22 25 26 28 29 28 31 31 29 24 21 18 10 8 6 6 6 6 6 8 7 7 4 3 3 2 2 7 6 8 9 8 10 14 8 9
21 22 25 27 28 28 29 31 33 30 27 23 18 13 5 3 6 6 5 6 8 5 5 7 5 4 3 3 2 4 15 13 9 9 8 11 14 12
24 26 27 28 29 27 33 31 33 28 29 21 15 7 1 6 6 7 8 10 9 4 2 2 6 3 3 2 1 3 4 7 12 14 6 6 5 3
25 27 30 29 28 32 32 32 32 28 25 18 13 4 2 5 6 8 8 7 6 6 6 8 5 1 1 1 2 2 8 11 9 12 17 16 7 3
27 28 30 30 30 33 32 31 31 27 22 16 8 2 3 7 9 10 11 10 10 10 6 4 1 2 2 3 3 4 7 12 5 6 2 10 19 21

GFSNE_925_spd_009.txt.gz
Wind_Speed
29 29 28 26 26 25 24 24 13 15 16 21 23 27 31 34 36 42 43 46 49 48 48 48 47 45 46 46 46 45 44 46 46 43 40 42 37 33
24 29 29 27 27 24 23 23 23 14 13 25 26 29 32 35 39 41 46 48 47 48 49 48 48 47 46 46 49 49 49 49 45 43 42 38 34 33
29 29 30 28 25 23 24 23 23 22 13 31 30 30 30 31 35 37 42 43 42 45 48 51 50 49 52 49 46 47 48 49 48 43 45 39 37 32
30 31 29 24 25 24 24 25 23 24 20 15 35 31 29 30 33 33 35 36 41 43 43 47 50 53 52 47 46 46 46 47 48 46 48 43 39 33
30 31 27 27 25 26 27 23 22 26 25 24 23 30 32 31 30 31 33 34 33 36 42 44 47 45 45 44 45 47 48 47 47 49 46 40 32 31
30 25 26 25 26 30 26 22 24 25 24 23 24 28 29 31 29 25 22 24 27 32 37 40 44 45 45 45 44 48 48 47 53 54 51 45 40 29
29 27 27 29 30 27 23 29 27 24 22 21 17 21 23 23 19 27 27 29 32 26 31 32 37 33 36 39 42 41 50 50 48 46 44 40 33 33
30 30 28 31 29 28 29 30 28 27 26 21 19 14 24 26 29 26 27 13 15 27 20 24 28 31 32 31 34 34 44 50 48 45 37 33 31 29
28 30 31 28 31 30 33 32 30 31 30 33 27 26 30 31 32 29 27 24 15 31 24 17 22 27 31 35 36 38 39 40 38 34 34 31 30 27
30 31 31 31 30 35 37 36 34 36 35 32 32 32 34 38 35 34 38 36 37 34 25 12 21 21 23 28 26 34 37 33 32 30 30 29 28 26
30 29 30 32 33 38 39 36 37 38 36 31 33 37 36 39 41 39 28 14 14 15 14 16 8 3 5 11 18 27 29 29 28 27 27 27 27 26
26 26 30 34 39 40 42 38 30 29 31 35 36 35 31 33 33 28 26 11 11 10 16 11 8 7 2 5 14 24 24 24 24 24 25 26 27 25
27 30 30 35 39 44 40 33 31 37 35 30 33 32 31 28 27 27 27 23 14 10 19 18 6 7 2 3 5 17 25 21 21 23 24 25 24 25
30 30 32 40 42 39 37 37 37 34 28 28 28 26 28 28 28 28 28 22 19 20 27 25 7 8 3 2 3 10 17 20 22 23 23 21 23 24
31 32 37 39 36 34 34 36 33 29 27 24 23 26 27 30 30 27 18 8 4 8 4 5 6 13 5 3 4 5 9 8 17 22 21 22 23 24
26 28 36 33 29 32 31 29 27 30 29 28 26 29 28 27 23 19 11 4 3 10 16 15 16 17 9 11 12 10 12 4 17 20 22 20 19 21
34 28 29 27 28 29 29 28 30 30 27 29 28 25 24 23 19 14 10 4 1 1 5 16 18 15 16 10 8 12 11 7 17 19 14 15 16 19
28 24 25 25 25 27 27 29 29 31 30 33 28 25 21 19 16 9 6 0 2 3 5 7 6 5 7 14 12 12 9 11 16 18 15 10 9 14
22 22 23 25 26 27 28 28 29 33 33 32 26 22 20 17 13 3 1 4 4 6 7 5 5 1 2 2 3 5 11 10 17 13 13 8 5 10
19 22 25 26 28 29 30 29 33 32 31 31 26 22 19 14 4 1 3 5 5 4 3 5 7 6 3 3 3 3 6 13 10 8 6 7 8 9
22 25 26 27 29 30 30 32 32 31 32 31 23 20 17 10 3 3 7 10 8 3 1 2 6 5 7 5 4 2 3 7 7 8 6 7 5 7
25 26 28 30 30 30 31 32 31 32 30 26 21 17 13 6 4 7 9 6 5 4 4 4 2 3 5 4 1 1 1 3 7 13 14 9 5 3
27 27 29 30 31 31 33 31 30 30 29 22 18 15 10 8 10 11 11 9 8 6 2 1 1 1 1 2 3 1 2 2 3 6 8 16 13 9

GFSNE_925_spd_012.txt.gz
Wind_Speed
24 26 28 26 26 25 23 22 10 11 14 26 20 25 27 33 35 38 38 37 40 44 44 46 46 45 44 41 43 42 44 44 44 45 47 46 45 46
27 29 28 28 28 25 23 22 21 14 11 27 29 28 31 32 33 34 37 40 42 43 45 43 43 45 45 47 45 41 40 46 48 47 48 45 43 43
27 28 30 29 26 24 24 23 23 21 10 26 27 32 35 33 32 30 31 35 37 38 42 45 43 41 43 45 46 46 44 45 44 48 48 47 42 43
27 27 26 25 26 23 24 28 25 20 17 13 31 28 27 32 33 35 32 31 35 36 39 45 44 41 38 39 42 44 47 45 43 45 45 48 46 45
23 24 30 27 27 27 28 28 27 21 21 21 24 27 28 29 28 28 32 35 32 31 35 34 35 39 41 38 40 38 43 44 43 40 40 49 50 50
26 27 28 27 29 30 30 29 25 23 25 21 22 25 26 26 25 25 26 28 33 32 29 35 37 39 38 43 37 36 38 41 42 40 40 46 52 54
28 28 26 30 31 29 32 32 30 27 26 21 17 22 22 22 19 26 26 30 31 32 32 35 32 33 33 34 31 32 35 38 44 43 43 46 53 51
30 31 31 30 29 34 33 35 35 34 30 25 22 16 25 29 29 27 22 13 17 26 23 28 34 31 32 34 33 34 37 38 37 39 41 45 47 50
30 31 32 29 32 30 34 36 35 35 36 39 32 30 30 33 31 27 29 26 16 33 31 25 29 32 29 33 35 39 38 38 38 39 37 34 44 46
29 30 29 30 30 36 38 35 31 35 38 38 34 34 35 31 29 33 33 34 35 35 31 15 25 26 24 31 36 38 38 36 37 42 39 43 45 42
30 29 28 33 34 40 38 36 38 34 34 37 37 37 35 38 37 33 24 13 11 16 26 20 21 24 21 25 30 30 28 28 27 36 36 34 34 35
28 27 29 34 38 38 42 35 28 34 38 39 35 30 28 31 31 29 25 10 10 9 7 5 9 3 3 4 8 11 14 25 31 34 34 34 35 32
27 32 31 35 35 43 42 30 34 41 36 30 33 31 30 27 25 26 25 22 15 11 24 21 8 5 4 2 3 4 19 21 23 26 28 30 30 29
32 34 34 31 39 41 34 36 38 35 30 29 30 26 28 26 28 28 31 29 27 24 25 22 11 14 3 2 2 2 16 21 22 21 24 25 25 25
33 35 30 34 38 32 33 36 35 29 28 26 25 26 27 33 31 29 28 26 22 13 12 14 17 12 9 2 3 3 6 10 23 25 21 22 24 27
31 25 29 33 32 32 32 31 30 29 30 28 27 31 33 30 26 25 22 17 10 7 7 11 3 4 4 5 7 6 11 4 18 24 24 20 22 27
39 28 27 27 28 30 30 30 31 31 28 29 29 30 30 27 22 23 17 11 3 1 3 11 16 20 14 10 7 12 13 12 18 22 21 16 17 21
35 24 20 25 26 28 28 31 31 32 30 32 31 29 28 21 21 18 12 7 0 2 3 7 9 6 6 17 14 12 12 8 13 18 18 8 8 13
24 23 21 25 27 28 28 30 31 33 34 31 30 28 28 21 19 13 7 2 3 5 6 9 8 1 2 3 5 8 8 11 13 12 14 8 7 15
25 22 24 27 28 28 31 31 33 32 31 30 30 29 21 17 12 7 3 3 2 2 4 8 8 7 2 2 3 4 8 17 13 9 7 9 10 9
25 25 27 28 28 31 32 33 32 32 33 30 28 24 20 15 10 8 5 6 5 3 2 2 6 7 5 5 4 3 7 10 11 14 15 10 4 7
26 27 28 29 30 32 33 32 31 31 30 29 28 21 18 14 11 9 8 6 5 5 3 4 7 7 5 4 2 2 4 7 7 7 9 6 6 4
27 28 30 31 32 33 33 32 30 30 29 27 22 17 15 13 12 9 8 6 4 3 3 2 5 6 5 5 4 2 4 5 5 7 8 8 10 11

GFSNE_925_spd_015.txt.gz
Wind_Speed
19 20 21 22 22 22 23 23 12 11 15 30 26 27 26 26 28 33 34 35 37 38 38 38 40 39 41 42 43 44 44 44 44 43 44 45 47 49
21 23 21 22 23 21 21 23 21 14 10 30 34 30 26 31 33 31 33 38 37 36 36 37 39 40 39 40 42 44 44 43 41 39 38 40 44 47
22 23 22 21 26 26 23 23 24 22 12 33 31 30 35 36 35 34 34 36 33 30 34 37 39 38 37 39 40 41 42 41 40 37 36 36 41 46
26 20 24 26 27 25 25 26 26 26 25 19 28 34 33 33 33 34 35 32 33 34 33 32 36 42 39 35 35 35 39 39 38 38 38 39 42 42
24 25 27 28 28 27 27 27 23 27 27 27 27 32 32 30 32 33 33 34 34 33 32 32 30 31 41 41 39 35 35 33 34 34 36 38 39 46
25 27 28 27 28 30 29 27 28 28 28 27 26 28 30 32 31 30 30 31 33 31 30 29 35 37 39 34 34 35 34 30 30 31 36 38 37 39
29 29 28 28 30 29 30 32 31 31 30 27 23 25 24 26 25 31 29 32 31 26 27 34 30 30 26 32 33 28 24 27 30 31 30 34 38 40
29 31 30 30 29 32 33 33 35 35 33 27 27 16 26 31 34 30 29 13 13 25 25 25 32 36 34 35 35 36 31 31 31 34 32 32 36 41
29 30 31 29 31 31 33 34 31 34 36 36 31 29 29 35 34 33 29 18 17 32 28 21 34 32 34 33 37 39 35 34 34 36 35 36 37 37
29 30 30 31 31 34 35 25 31 39 35 33 34 37 35 40 37 36 33 33 31 32 25 13 22 28 32 29 32 32 33 38 41 39 40 39 37 38
28 30 27 33 34 37 33 32 37 38 35 37 38 38 37 41 38 32 23 13 13 19 21 17 25 22 22 24 28 35 34 33 36 38 36 33 33 26
29 27 30 35 39 29 35 35 33 35 37 38 36 35 31 33 32 29 27 12 13 14 12 7 18 15 5 7 9 14 23 27 25 25 22 28 34 33
27 30 30 37 28 35 39 34 32 41 36 33 32 31 31 30 29 29 26 28 20 13 25 21 9 13 9 7 10 18 16 3 13 25 31 32 33 41
30 32 35 32 41 38 37 36 38 36 30 29 28 28 27 29 31 32 34 36 29 33 31 21 9 14 8 8 5 6 4 13 24 24 28 25 25 27
32 34 37 43 39 31 35 38 34 29 28 26 25 28 28 34 35 33 33 27 28 26 22 14 14 19 19 8 3 4 1 9 20 24 23 24 25 28
26 34 39 36 28 32 33 30 28 28 29 28 28 31 33 31 29 30 26 24 20 15 8 6 8 10 10 10 8 5 7 2 16 23 26 25 25 23
39 31 29 26 26 29 29 29 30 29 28 29 30 30 29 28 28 30 21 19 9 5 2 3 6 10 11 3 4 7 9 11 18 23 27 22 22 23
30 25 25 23 25 28 29 30 30 31 30 32 30 29 27 26 26 22 17 11 3 2 3 5 6 3 3 17 17 10 12 14 16 23 22 17 11 20
23 23 24 26 28 29 29 29 30 33 34 30 30 29 28 26 22 16 11 3 3 4 6 8 8 2 2 3 5 18 8 10 16 17 15 13 8 13
23 24 25 28 28 29 30 31 32 33 31 29 29 28 27 20 16 10 7 4 4 4 5 8 10 9 2 2 3 11 10 12 13 13 12 17 17 14
25 26 27 29 30 31 32 32 32 31 33 29 27 26 21 17 12 12 11 11 7 6 4 4 7 6 4 6 7 7 14 10 11 14 14 14 8 7
27 28 29 30 31 32 33 32 31 31 29 27 26 24 18 15 14 12 11 8 7 5 3 4 8 6 4 5 6 5 9 13 15 15 11 7 5 5
28 29 31 31 32 33 33 32 31 31 29 26 23 19 17 14 12 10 9 8 7 5 5 4 5 8 8 8 7 6 11 11 11 11 10 12 10 7

GFSNE_925_spd_018.txt.gz
Wind_Speed
20 20 22 23 22 23 23 24 14 15 16 32 29 33 33 34 38 31 34 39 43 42 42 40 40 39 39 37 37 38 38 39 38 39 37 34 45 41
21 23 23 24 24 24 26 27 26 20 15 31 33 39 36 37 33 35 38 41 40 36 42 43 41 35 39 41 37 35 36 38 39 36 35 33 34 42
23 24 26 24 26 26 27 27 27 27 13 29 33 38 40 38 37 38 36 37 36 37 41 38 40 41 41 38 41 38 34 33 33 34 35 34 32 34
25 25 26 25 28 28 27 28 28 29 25 18 34 35 37 39 38 37 37 36 38 39 41 42 41 41 40 41 38 36 37 37 38 33 32 31 32 33
26 27 27 28 29 28 28 29 28 28 30 28 29 32 35 35 35 35 36 36 37 37 37 38 38 36 36 37 42 43 38 37 35 35 32 30 29 31
27 27 28 28 28 31 31 31 29 31 31 30 28 29 30 34 33 30 29 32 32 36 36 37 35 38 33 42 39 38 33 33 30 29 29 30 26 29
28 28 28 28 30 30 30 31 31 33 30 27 23 25 27 28 25 31 29 33 35 36 35 34 32 28 29 34 37 38 35 30 28 26 26 26 27 28
29 30 30 30 29 32 33 36 35 36 33 27 23 17 28 29 32 31 29 15 16 36 27 30 32 33 34 34 35 35 36 36 33 31 30 29 28 29
29 30 31 30 31 32 36 37 37 33 30 34 31 30 32 35 35 34 33 28 19 37 32 25 33 28 32 31 32 35 38 40 35 33 32 33 30 31
28 29 31 33 32 35 37 36 30 32 34 36 35 36 36 38 37 35 36 35 38 34 27 13 23 28 30 30 32 32 32 36 34 30 32 33 34 34
29 29 32 33 35 39 39 30 36 35 37 39 38 41 40 41 37 32 25 14 15 19 22 21 23 23 17 28 35 30 25 24 26 29 32 34 31 29
31 32 31 34 39 38 38 40 32 32 38 40 36 35 33 32 31 29 27 14 13 15 17 16 19 20 9 18 10 22 23 25 28 35 33 30 29 24
30 31 31 36 38 44 45 37 31 41 39 34 33 32 31 29 28 27 27 27 22 14 26 28 15 20 12 11 22 22 24 27 32 15 15 19 21 24
33 33 35 37 44 42 37 32 39 37 30 29 29 29 29 30 31 32 34 34 34 35 37 33 20 15 8 10 11 18 19 23 9 20 25 21 23 24
33 37 37 41 38 34 29 37 32 28 28 27 26 28 30 34 37 34 32 32 32 34 30 27 16 13 15 10 9 12 5 8 5 23 23 21 21 26
32 30 38 33 31 31 32 29 28 28 29 28 27 32 33 32 30 31 27 27 25 20 14 10 9 11 15 17 17 10 3 2 5 22 25 25 25 25
38 32 28 27 28 28 28 28 29 30 29 29 29 30 30 30 28 29 26 24 11 6 5 3 5 5 11 7 7 5 4 4 7 22 26 22 23 27
30 25 25 25 25 27 28 30 30 31 29 31 30 29 27 27 26 27 21 13 5 6 7 9 9 8 5 9 18 6 9 9 12 20 21 20 18 24
24 23 24 25 27 28 29 29 30 32 33 30 29 28 27 25 25 18 12 9 5 6 8 11 11 5 2 3 6 21 8 10 18 18 17 16 14 18
23 24 25 27 28 29 30 30 31 32 30 29 29 27 25 22 17 14 14 9 8 7 7 8 10 10 4 4 3 14 16 13 18 18 20 24 23 24
24 25 26 28 29 31 31 31 31 30 31 29 26 24 24 18 15 14 13 13 11 7 5 5 8 4 3 3 5 8 20 19 17 19 17 16 8 7
26 27 28 29 31 31 31 31 31 31 29 27 25 23 21 17 15 14 13 11 10 8 6 6 8 5 5 7 8 9 14 18 23 20 18 11 5 5
27 28 30 31 32 31 31 30 30 29 27 25 23 22 20 16 14 12 12 11 8 7 5 4 7 10 11 11 9 8 13 13 14 16 16 11 10 13

GFSNE_925_spd_021.txt.gz
Wind_Speed
21 22 22 24 24 24 23 23 15 16 17 26 29 30 28 32 34 34 37 39 39 38 41 45 43 38 45 45 42 39 38 37 35 34 35 35 32 33
23 24 25 25 26 26 25 25 24 20 17 30 34 36 37 30 35 33 35 38 39 41 41 41 40 41 45 46 44 43 41 38 35 36 36 35 34 35
24 25 26 27 26 26 26 27 26 25 14 30 35 35 38 37 36 33 37 33 36 36 40 41 41 44 47 48 47 44 42 39 36 32 33 35 33 32
26 27 27 26 28 26 26 27 27 28 29 19 33 35 37 36 36 34 33 33 37 40 39 41 45 43 41 44 44 45 40 37 35 38 34 35 35 33
27 27 28 27 27 26 27 27 29 29 28 28 30 34 35 34 34 31 35 38 34 34 38 39 39 41 42 44 44 42 42 36 37 32 29 27 31 32
28 28 28 26 27 27 30 29 28 28 31 30 29 30 31 34 28 31 33 33 34 35 36 39 41 40 42 42 36 37 37 35 37 33 30 30 30 30
29 28 27 28 30 31 29 28 31 30 30 28 25 25 20 26 24 32 31 36 37 32 34 34 33 33 32 36 35 35 37 36 35 33 30 29 29 27
29 28 28 29 28 31 31 36 36 35 32 29 29 11 21 29 35 30 30 20 18 29 31 35 33 35 35 33 34 33 36 36 37 34 30 30 30 29
29 29 30 27 30 30 35 36 34 37 39 35 31 26 31 35 36 35 31 28 21 38 32 27 32 31 30 29 30 36 35 34 34 34 33 32 31 31
29 29 30 31 33 35 35 33 33 32 36 35 36 35 36 39 38 35 37 37 35 33 27 15 25 29 30 29 29 35 34 35 36 36 33 30 30 30
28 28 32 33 34 37 37 33 36 36 36 36 37 41 43 40 38 35 27 16 15 18 23 26 26 22 29 33 30 30 19 22 25 25 26 25 24 25
29 29 31 35 37 39 38 37 32 35 33 36 34 32 32 33 33 30 29 14 14 14 23 21 24 23 10 19 18 26 26 29 29 30 29 31 30 28
29 31 31 36 38 38 43 33 34 39 36 30 32 31 31 29 29 29 29 29 24 15 30 29 23 22 14 12 21 21 25 26 28 34 28 29 32 31
31 33 35 37 38 41 34 36 38 36 30 29 29 28 28 29 31 33 35 36 35 36 38 34 24 22 12 9 9 18 22 26 22 20 16 7 18 21
33 38 34 39 37 30 34 35 33 28 28 25 25 28 30 34 36 34 33 32 33 34 33 33 31 21 10 6 8 14 14 11 19 14 13 24 18 18
34 29 36 33 31 33 30 29 27 28 29 27 27 31 33 31 31 31 29 29 25 24 18 10 8 11 11 14 15 10 16 3 14 10 19 26 26 24
38 30 26 27 27 28 28 28 28 28 27 28 29 30 29 29 29 31 29 23 10 7 11 15 15 11 10 14 6 10 4 4 7 8 18 20 26 23
28 23 24 25 25 27 27 29 29 30 29 31 29 28 26 26 26 28 22 15 7 8 8 12 14 11 7 1 20 10 8 7 12 17 18 20 20 23
23 24 23 25 27 28 28 28 29 31 32 29 28 27 27 25 26 19 20 19 12 11 11 12 13 5 3 3 7 22 6 10 17 20 21 19 17 20
23 24 25 26 28 28 29 29 31 32 30 28 28 26 24 22 20 17 17 13 12 11 9 11 11 11 4 4 3 14 13 14 19 18 21 25 30 31
25 25 26 28 29 29 30 30 30 30 31 28 25 24 24 23 18 17 17 19 17 8 6 4 12 8 11 8 6 11 24 24 22 19 18 19 12 17
25 27 29 29 30 30 30 30 30 30 28 26 25 25 24 22 18 16 15 14 12 10 7 8 11 11 13 8 7 8 16 22 26 24 23 16 5 3
27 28 30 30 31 31 30 30 30 29 28 27 25 24 22 22 19 15 13 14 13 8 7 6 9 12 13 13 11 7 12 15 17 21 22 14 18 23

GFSNE_925_spd_024.txt.gz
Wind_Speed
25 24 27 27 28 27 27 24 16 17 17 27 28 30 29 31 30 30 38 36 36 42 42 43 40 42 42 42 43 42 41 43 44 42 41 40 36 35
24 28 30 27 27 28 27 24 22 20 17 33 31 35 37 32 33 35 35 36 40 36 38 40 43 43 45 46 45 42 44 45 43 43 42 40 40 36
27 28 29 30 28 25 27 25 25 24 14 33 37 38 37 38 39 33 32 35 35 34 36 43 44 43 43 42 45 45 43 42 40 40 40 39 38 35
27 29 29 28 30 28 25 26 24 25 27 18 35 33 36 39 37 40 33 34 27 35 37 45 41 39 43 43 42 44 46 45 41 41 36 36 34 38
27 29 30 31 30 27 27 26 30 29 27 25 29 35 35 35 38 37 32 29 30 34 41 39 39 39 41 41 42 42 42 43 41 38 37 38 31 35
28 30 31 31 29 30 31 31 26 26 27 29 29 27 31 37 34 25 29 31 37 33 34 39 36 38 40 39 39 39 40 38 35 32 34 32 31 35
29 30 30 30 32 34 32 30 30 31 30 23 22 26 28 29 25 29 31 36 35 33 35 29 32 34 34 36 36 36 35 34 34 32 32 32 30 35
30 29 31 31 30 33 34 39 38 35 31 28 24 18 31 32 32 29 29 24 17 25 23 40 31 35 34 31 35 33 35 33 32 34 33 32 31 34
28 30 32 29 32 35 36 37 32 32 35 37 33 31 34 32 31 33 31 28 22 31 31 29 30 32 29 30 34 40 36 33 34 37 35 33 33 33
28 30 30 32 34 37 38 33 29 31 31 33 34 35 34 38 36 35 34 36 34 31 27 15 29 27 31 31 33 37 39 38 35 26 26 29 34 34
28 27 29 35 35 39 38 34 32 31 31 34 36 36 38 39 37 36 27 20 15 20 25 28 27 26 32 33 34 34 30 19 32 26 30 29 25 24
28 26 30 34 39 40 38 36 29 31 34 32 30 33 33 34 34 32 31 13 13 15 26 22 25 23 11 26 24 23 36 28 28 31 27 28 27 26
28 30 30 36 40 39 41 30 33 40 33 31 33 32 31 28 29 29 30 30 25 16 36 30 23 23 15 11 17 21 22 24 27 31 30 30 33 34
31 32 36 39 40 37 34 37 36 36 31 30 29 27 29 29 31 33 35 36 36 36 41 37 21 23 12 11 9 13 22 26 25 27 29 27 27 34
33 37 36 36 33 32 32 35 33 30 28 26 25 28 29 33 34 33 33 32 32 33 30 29 25 19 9 4 5 12 17 17 25 22 18 13 7 21
33 28 30 31 31 30 30 30 28 28 29 28 27 30 31 28 29 28 28 30 28 13 18 17 21 17 13 12 15 13 16 5 20 16 14 21 24 16
38 26 28 27 27 28 28 29 29 29 27 28 28 28 28 26 26 27 24 22 18 14 17 19 21 19 14 13 7 15 12 8 11 13 12 19 23 22
28 25 25 25 25 27 28 29 29 29 28 29 28 26 24 24 25 26 23 18 13 14 16 18 20 16 4 2 7 14 11 8 14 18 15 16 20 29
23 24 24 25 27 28 28 28 28 30 30 27 26 26 26 25 26 23 18 18 15 15 15 15 14 7 5 4 8 19 8 11 15 20 20 19 17 22
23 24 25 27 28 28 29 29 30 30 28 27 28 26 25 24 23 19 18 15 14 13 11 11 11 9 3 3 3 15 19 15 16 18 20 27 32 36
25 26 27 28 28 30 30 29 29 29 31 28 26 26 26 23 21 21 19 21 20 10 6 6 16 11 11 7 5 11 24 34 31 20 15 20 14 23
26 27 29 29 30 30 30 29 29 29 29 28 27 27 25 20 20 20 19 16 16 11 8 13 14 15 14 8 7 7 16 25 31 35 31 18 5 7
28 28 30 31 31 31 30 29 28 29 28 28 28 27 22 22 22 20 18 16 15 10 9 9 14 13 12 11 11 10 18 20 21 23 29 35 39 40

GFSNE_925_spd_027.txt.gz
Wind_Speed
24 20 25 27 27 28 28 24 17 15 16 27 26 28 26 29 30 30 34 38 41 41 40 40 41 39 36 39 42 44 44 43 44 43 45 44 47 46
19 24 26 26 26 26 26 24 24 21 15 32 32 33 33 29 29 32 34 36 37 39 40 39 40 35 38 42 46 47 43 43 42 43 45 46 45 44
24 24 25 26 26 26 27 25 25 21 14 36 37 36 36 35 35 32 30 32 36 38 36 37 34 41 43 49 48 42 41 42 43 42 43 42 43 42
26 25 26 26 27 27 26 27 24 28 26 18 37 34 35 38 37 35 32 32 30 29 32 36 42 48 48 44 42 41 42 42 42 43 44 44 43 42
21 24 27 27 27 28 28 28 28 28 25 24 28 35 36 32 33 31 28 34 30 31 38 41 41 43 42 41 39 40 42 42 41 41 41 42 42 41
24 27 28 27 28 29 30 28 26 28 29 29 30 27 30 27 27 31 33 32 33 31 35 40 39 39 37 37 42 40 39 38 39 40 41 41 38 36
27 27 26 25 29 30 30 32 34 31 28 23 26 23 21 30 27 31 31 34 32 33 33 33 27 26 35 38 37 36 36 35 36 37 37 38 37 34
27 27 27 27 28 31 34 36 35 35 33 29 22 16 29 30 31 32 32 20 13 26 25 30 30 36 33 32 33 36 37 37 41 39 39 36 32 32
28 28 28 27 29 30 36 36 35 35 32 33 31 29 32 33 36 30 26 26 23 31 32 30 28 31 30 31 36 37 37 41 40 37 36 35 35 36
27 27 28 29 29 36 38 35 32 26 28 30 31 34 34 35 36 35 34 33 31 31 28 16 29 30 33 34 36 38 41 39 37 37 36 32 34 34
26 25 29 31 34 39 38 31 28 24 28 33 33 34 38 38 35 35 26 20 14 21 33 27 29 29 30 33 38 38 33 30 29 30 32 30 29 30
27 26 28 33 38 38 37 31 25 32 32 29 31 33 32 34 33 30 29 15 12 13 34 20 24 22 9 24 28 25 28 33 33 31 31 30 31 32
26 29 30 37 35 38 36 31 32 36 31 30 30 31 30 28 30 30 31 29 24 18 38 31 22 23 15 10 19 23 26 31 28 31 32 32 32 34
27 30 34 32 37 36 33 31 34 33 30 28 28 27 28 30 31 34 36 36 35 34 39 36 20 19 11 11 11 15 23 28 27 28 28 27 27 31
29 33 30 34 32 29 30 31 31 28 25 24 25 27 29 33 35 32 32 30 32 29 27 27 24 23 17 7 7 12 20 21 22 25 27 24 24 25
28 24 29 29 27 28 29 28 27 26 28 26 27 30 31 29 28 27 27 28 25 25 27 23 26 23 18 16 14 12 23 8 23 24 20 17 8 14
34 26 26 26 26 26 27 27 28 28 27 27 28 29 28 27 26 27 25 26 17 16 21 23 25 22 14 15 7 16 19 19 18 18 12 11 22 20
25 23 23 24 24 26 26 28 28 29 28 30 28 27 25 26 26 27 25 20 13 17 17 17 19 17 8 5 11 16 15 10 14 18 17 12 16 26
21 22 23 24 25 27 27 27 28 30 31 28 27 26 26 25 26 24 21 19 16 17 16 16 15 4 3 4 9 28 9 13 14 20 20 20 17 26
21 22 24 25 27 27 28 28 29 30 29 28 28 26 25 23 23 19 20 17 15 15 11 14 13 9 2 3 3 11 36 20 13 13 16 21 22 33
24 25 26 27 27 28 28 29 29 29 30 29 27 26 26 24 20 20 19 22 20 12 6 6 15 13 13 7 5 9 23 37 32 20 16 18 12 23
25 27 28 28 29 29 29 29 29 29 29 28 27 27 26 25 19 19 18 16 15 12 10 14 15 18 14 9 7 7 14 24 37 42 39 32 13 10
27 28 30 30 30 30 29 29 28 29 28 27 27 27 27 23 21 19 18 16 13 11 9 11 13 15 14 12 12 9 17 20 24 29 34 39 39 42

GFSNE_925_spd_030.txt.gz
Wind_Speed
19 15 21 25 24 24 23 21 14 13 15 20 22 24 26 27 28 30 32 32 35 37 39 40 41 42 43 42 41 39 38 39 37 42 45 45 46 44
15 22 23 25 25 23 23 23 21 19 14 30 31 31 29 27 28 32 32 33 35 38 38 40 41 42 40 41 40 37 40 40 44 46 48 45 45 45
23 19 21 24 23 24 24 23 23 22 14 34 36 34 32 32 32 29 28 31 32 34 36 44 46 46 45 45 42 45 48 49 48 45 44 44 45 43
24 20 22 23 26 24 24 25 26 28 25 17 34 35 35 37 34 31 27 23 28 36 41 42 43 43 45 46 46 46 47 45 45 44 43 44 44 45
22 21 24 26 26 26 28 26 26 26 26 28 30 37 36 33 33 28 27 34 31 35 39 37 37 40 41 41 43 43 41 39 39 41 42 43 43 43
23 24 25 26 28 28 27 28 25 30 30 30 30 29 29 32 22 31 32 30 33 35 35 36 36 40 40 39 40 41 42 43 41 41 41 42 42 42
28 27 25 26 29 30 30 31 33 30 28 24 27 29 18 29 23 30 31 35 33 30 27 36 33 32 33 39 41 42 41 39 38 38 39 39 40 40
26 27 29 25 26 31 34 34 35 35 35 30 20 19 24 28 31 32 30 20 14 28 27 32 32 36 36 35 37 38 39 39 40 41 41 40 39 40
28 28 28 23 29 30 33 36 36 37 28 33 28 28 30 33 33 26 29 27 24 35 30 30 30 32 34 35 38 40 40 41 41 40 40 40 41 41
27 26 25 29 29 35 37 35 24 31 24 29 31 33 32 35 37 34 32 32 31 31 27 14 32 32 34 34 38 41 41 40 39 39 39 40 41 41
25 24 26 29 34 37 36 31 28 28 32 31 31 34 37 35 33 33 24 20 14 24 29 23 29 29 32 35 38 37 36 33 33 35 34 34 31 35
26 23 23 32 36 34 37 30 27 32 31 28 31 32 32 32 31 28 27 16 10 14 26 18 25 23 8 23 25 26 30 32 32 33 35 36 34 31
25 26 28 31 34 37 34 27 30 35 30 30 30 30 30 29 30 29 29 27 24 19 36 31 24 24 16 9 19 24 28 33 31 32 36 37 36 35
25 28 28 33 35 32 28 29 32 31 28 27 27 27 29 30 31 33 35 35 34 35 41 38 26 25 15 12 13 22 26 30 31 31 31 32 31 33
27 31 31 31 30 27 27 29 29 26 26 24 25 27 30 33 35 33 32 32 32 33 33 33 29 29 24 10 11 18 17 19 24 29 27 28 29 27
27 24 27 26 25 26 26 26 26 26 27 25 26 31 32 30 31 30 29 30 26 29 28 24 26 26 22 19 18 15 23 7 24 31 26 24 23 30
32 23 24 24 25 25 26 26 27 26 25 26 28 29 29 29 29 30 27 27 19 18 22 26 26 25 22 19 9 18 21 22 23 21 18 13 10 19
23 21 22 22 22 24 25 27 27 28 27 28 28 28 27 27 27 28 26 22 17 20 18 21 23 21 12 8 11 17 17 13 20 20 18 9 13 21
19 20 21 22 24 25 25 26 27 29 29 27 27 27 27 26 27 25 24 21 19 18 18 20 18 7 6 4 9 23 17 18 19 20 20 14 12 28
19 21 22 24 25 26 27 27 29 30 28 27 28 28 26 24 24 23 21 18 17 16 15 18 15 14 4 3 3 15 35 24 18 15 15 21 23 28
22 23 24 25 27 28 28 28 28 29 29 28 27 26 26 24 23 24 21 23 21 13 8 9 20 18 17 11 6 8 21 37 39 29 19 15 9 21
24 25 26 27 28 28 29 29 29 30 29 27 27 26 26 24 23 23 19 17 15 13 11 17 18 20 15 9 6 8 17 25 36 48 48 41 19 11
25 26 28 29 29 29 29 29 29 30 28 27 26 26 25 23 25 21 19 18 14 12 13 12 16 16 14 12 11 9 19 21 22 28 38 44 46 47

GFSNE_925_spd_033.txt.gz
Wind_Speed
15 13 18 17 19 21 21 19 12 10 15 18 17 25 27 29 29 30 32 33 35 36 39 39 42 43 43 42 43 43 44 45 43 43 43 42 40 41
16 20 19 19 20 21 22 21 19 19 11 31 30 30 29 28 30 34 35 35 37 37 39 38 38 42 46 49 50 50 47 43 42 42 41 41 42 43
20 21 20 20 22 23 25 23 21 20 14 34 36 35 36 36 34 33 32 33 35 36 35 39 49 50 47 44 44 45 46 47 47 46 45 46 45 46
22 22 22 23 24 26 25 23 24 26 24 17 32 38 38 39 38 34 29 26 25 35 43 44 42 43 43 42 39 40 41 43 44 45 46 47 46 47
22 24 25 25 26 26 28 26 25 24 24 27 32 35 38 35 35 28 27 33 32 34 39 39 39 38 37 39 42 45 44 43 42 43 43 43 41 41
22 21 22 23 25 27 26 25 24 29 29 29 30 31 31 27 27 32 32 30 34 33 35 38 36 38 46 46 43 42 41 41 42 43 44 43 43 43
22 25 24 22 24 25 29 31 31 28 28 28 27 21 26 26 28 30 31 35 32 28 29 37 34 32 35 38 40 40 40 39 39 40 40 41 41 41
26 27 27 23 24 28 30 32 32 34 32 19 29 21 25 29 32 32 29 22 16 30 24 36 31 35 35 34 36 37 38 40 40 40 40 41 40 40
26 29 29 24 28 31 32 34 34 24 30 30 29 28 31 33 31 30 30 27 26 35 29 29 30 32 34 35 36 38 39 40 40 40 40 39 40 41
27 27 27 29 29 33 35 25 31 29 26 31 30 33 32 35 37 32 33 34 33 32 26 13 30 33 34 35 37 39 40 38 36 37 38 38 39 40
25 23 24 25 31 35 32 30 29 29 32 31 28 34 36 33 32 32 26 22 15 25 28 25 28 29 33 37 38 33 34 34 34 35 36 36 36 36
22 22 21 30 34 33 34 30 25 32 31 26 31 32 32 31 30 27 28 19 14 14 24 19 27 23 9 27 26 30 31 34 34 34 35 37 36 34
25 24 27 31 33 35 33 26 28 34 29 29 28 30 29 28 29 28 29 27 26 22 37 31 24 26 16 10 24 28 31 33 33 33 34 36 37 37
25 27 29 34 35 32 28 27 30 30 28 26 27 27 28 30 32 33 35 34 33 35 42 39 25 25 18 13 14 24 29 32 31 33 31 32 34 36
25 31 32 31 29 26 25 27 27 24 24 23 24 27 29 33 35 32 32 32 32 33 33 34 31 30 26 13 12 22 21 20 26 29 30 31 33 31
26 25 26 26 24 25 25 25 24 24 25 24 25 30 30 30 31 29 30 31 28 31 29 27 26 27 24 24 21 17 26 8 24 31 29 30 29 33
30 23 22 22 23 24 25 25 25 25 24 25 26 28 28 29 30 29 27 28 19 21 27 28 29 26 25 25 12 19 22 24 24 24 23 19 14 21
22 20 20 21 22 23 25 27 26 27 26 27 27 27 27 27 28 29 26 23 19 21 22 24 26 24 21 9 11 18 20 19 24 24 22 7 8 12
17 19 20 22 23 25 25 26 27 28 28 25 26 26 26 27 27 26 25 23 20 21 21 22 21 10 9 8 9 24 22 24 22 18 21 18 7 6
18 20 22 23 25 25 26 27 28 29 28 26 26 27 25 23 25 23 23 22 19 19 17 21 19 17 6 5 4 20 33 29 22 18 16 19 18 23
21 22 23 25 26 27 28 28 28 28 28 27 26 25 25 23 24 23 23 26 25 15 9 14 23 21 20 14 8 10 28 37 40 34 27 8 10 19
23 24 26 27 27 28 29 29 29 29 28 26 27 26 26 23 23 23 22 21 18 15 14 20 23 22 15 9 7 10 20 28 34 44 48 44 20 7
25 26 28 29 29 29 29 29 29 29 28 27 27 27 25 24 24 23 22 20 17 14 15 13 18 16 15 11 12 10 19 23 21 26 38 43 47 46

GFSNE_925_spd_036.txt.gz
Wind_Speed
12 11 14 16 14 15 16 17 11 9 15 16 8 26 27 26 27 30 32 34 35 37 39 41 42 43 43 43 41 40 43 46 45 44 44 43 44 45
15 14 17 18 17 19 20 20 21 19 11 30 31 30 29 28 30 32 34 34 36 37 37 37 38 42 43 43 49 52 51 48 47 46 46 48 44 43
16 17 19 20 21 22 22 25 25 23 15 38 34 35 34 34 34 32 30 30 33 33 35 40 47 47 47 47 47 46 45 44 43 42 42 44 44 44
19 19 21 21 21 22 24 26 26 27 24 23 35 37 35 37 36 32 26 28 31 35 39 40 41 43 43 43 43 42 42 42 41 40 40 42 45 45
18 18 21 23 25 24 24 25 26 23 22 28 33 35 37 33 29 30 31 32 33 34 36 39 37 40 42 43 42 43 45 46 47 46 45 44 43 42
18 22 23 22 22 25 23 23 22 27 28 27 29 30 23 30 32 32 29 31 33 31 34 37 37 39 41 41 41 41 42 42 42 41 41 41 41 41
22 23 23 21 21 23 26 27 28 27 28 26 19 28 26 28 26 31 30 34 30 29 34 35 30 34 37 39 39 39 38 37 38 38 39 39 39 41
24 25 26 23 23 25 27 29 30 33 24 26 25 23 28 28 32 30 27 26 15 28 21 37 33 35 35 35 37 37 38 39 40 40 39 40 40 40
24 27 27 25 26 29 31 30 32 25 27 31 28 29 30 33 31 31 31 27 28 36 32 32 32 34 35 36 38 38 39 40 40 40 41 40 40 41
26 26 25 28 28 30 33 26 30 27 25 29 30 32 31 34 35 31 33 35 33 33 27 14 32 35 35 36 38 39 39 38 38 38 37 38 38 39
26 22 23 26 30 33 31 28 28 27 32 29 27 30 35 31 30 31 27 24 15 27 32 25 28 31 35 39 38 33 33 34 36 37 37 38 38 37
21 23 21 27 32 31 32 28 24 31 30 25 31 31 29 31 28 26 27 21 19 13 25 16 28 23 8 25 24 33 33 34 33 34 35 36 37 36
24 23 24 29 32 33 31 26 26 31 28 29 27 28 28 27 28 27 27 27 26 24 39 31 22 26 16 14 28 27 31 34 32 33 34 36 37 38
25 24 28 32 32 30 26 25 28 27 26 24 26 26 27 29 31 33 35 33 33 35 42 39 26 27 21 14 15 26 32 34 30 31 30 31 31 34
25 29 30 30 28 25 23 25 24 23 23 23 24 26 27 32 34 31 34 33 33 34 32 31 30 31 27 18 13 27 27 25 30 29 30 30 33 30
26 24 26 26 22 23 23 23 23 22 24 24 24 29 29 28 29 29 29 31 29 32 29 26 27 27 27 26 23 22 27 9 28 32 31 28 31 33
29 24 23 21 22 22 23 24 24 24 23 25 25 27 27 27 29 28 27 28 20 23 30 35 30 27 27 28 16 22 26 24 29 29 28 22 18 12
22 19 20 20 21 22 24 26 26 26 25 26 26 25 25 26 26 28 25 21 20 24 24 28 30 27 26 12 10 18 24 25 30 26 24 11 6 9
16 18 19 21 22 24 24 25 27 28 28 25 25 27 25 26 25 24 23 22 21 23 22 25 23 14 10 10 11 26 27 29 30 23 23 17 6 8
17 19 21 22 24 25 26 27 29 29 28 27 26 27 26 23 23 22 22 20 20 22 21 23 21 18 8 5 5 19 35 31 26 24 18 18 16 14
20 21 22 24 25 26 28 28 28 29 28 28 27 25 25 22 22 22 22 25 25 18 9 16 25 24 22 15 9 10 28 36 35 33 30 9 5 13
21 23 25 25 26 28 30 29 29 29 28 26 27 26 25 23 22 22 21 19 19 18 16 22 26 24 15 7 8 8 19 29 33 36 45 39 15 6
23 25 27 28 29 29 29 29 29 29 28 27 27 27 25 24 24 22 21 21 17 16 16 14 19 16 14 9 11 10 17 20 22 25 31 36 36 36

GFSNE_925_spd_039.txt.gz
Wind_Speed
9 9 10 11 14 13 14 15 16 12 15 20 8 24 26 27 27 30 29 30 33 36 37 37 38 40 40 40 39 40 42 42 41 40 42 45 46 46
9 11 11 13 14 14 15 17 18 22 14 27 30 30 29 29 31 29 30 32 33 34 37 40 42 43 43 44 46 47 45 45 46 46 46 47 49 50
11 11 13 14 14 15 16 17 19 21 16 36 31 33 34 33 32 29 28 29 33 37 38 38 39 40 41 42 43 44 44 44 44 45 45 44 44 42
13 14 14 15 17 17 17 18 20 23 25 27 35 33 34 34 32 31 31 34 33 33 36 37 39 40 41 40 41 42 42 43 44 44 44 43 43 41
14 14 16 16 17 18 18 20 22 23 23 27 33 35 33 29 31 34 33 33 30 32 38 35 36 38 39 40 41 42 43 43 42 43 44 44 44 45
16 17 17 16 18 19 21 22 22 26 27 27 30 27 27 33 30 30 29 30 31 32 37 34 36 37 38 40 40 41 41 40 40 41 41 41 42 42
17 19 17 18 20 22 23 24 26 26 26 27 17 26 29 28 27 30 29 34 31 32 35 33 30 36 37 38 38 38 37 36 37 39 39 39 40 40
18 18 20 21 19 21 24 26 26 29 29 25 25 24 29 28 32 30 28 27 15 28 26 39 33 36 35 35 36 37 39 40 41 41 41 40 41 41
19 21 20 19 22 23 25 27 31 22 29 29 29 29 29 32 32 29 32 29 29 35 32 33 34 35 35 36 38 39 40 40 40 40 41 41 41 41
20 21 20 21 21 26 30 28 24 26 26 27 29 31 30 30 34 31 31 34 33 33 28 15 35 33 35 36 40 39 38 35 36 37 38 39 40 40
20 18 19 23 26 30 29 27 29 29 29 27 26 28 34 31 27 27 25 23 16 28 33 24 24 31 36 39 34 26 29 33 37 38 38 39 40 40
19 19 20 24 28 28 30 27 25 30 28 24 29 27 23 25 24 21 24 21 20 11 19 17 27 23 8 19 21 35 31 32 33 35 36 37 37 37
22 23 23 27 28 31 29 26 24 29 27 25 25 25 25 24 24 23 23 24 25 23 37 28 23 28 17 19 30 28 34 34 31 33 34 33 34 37
23 23 26 29 31 29 25 23 25 25 22 21 24 24 25 26 27 29 31 30 29 33 42 38 26 28 24 16 16 27 36 35 29 29 29 31 33 34
21 26 28 27 28 23 21 24 22 19 20 22 22 25 25 29 32 29 30 29 30 30 31 30 30 33 28 22 15 29 29 27 33 28 31 31 32 31
24 22 24 24 19 21 21 19 19 20 21 22 23 27 27 27 27 25 27 28 27 30 24 24 27 27 28 28 25 25 30 13 36 31 30 30 28 29
27 21 20 19 20 20 21 21 22 22 22 23 24 26 26 25 27 26 25 26 20 23 28 32 28 27 27 29 21 23 26 28 32 32 28 22 11 15
20 18 18 19 20 21 22 24 24 24 23 25 25 24 24 24 25 27 24 21 21 23 24 28 30 28 25 17 10 16 24 27 34 30 26 11 7 12
15 17 18 19 21 22 22 23 25 25 26 23 24 25 24 24 25 23 23 21 21 22 24 25 23 16 11 12 13 20 22 30 31 26 24 16 6 8
16 18 20 21 22 23 24 24 26 27 25 25 24 25 24 22 22 21 22 20 20 22 22 21 19 18 11 8 6 22 27 28 27 24 24 15 15 8
19 20 21 22 23 24 25 26 26 27 27 26 26 24 24 21 22 22 21 24 23 18 12 17 24 25 22 16 9 10 25 28 28 26 25 13 7 9
20 21 23 24 25 26 27 27 27 27 26 25 25 25 24 22 21 21 21 19 19 18 19 22 25 22 10 8 9 11 18 26 29 28 32 31 12 6
22 23 25 26 27 27 26 26 26 28 27 26 26 26 25 22 22 21 20 19 18 17 17 18 19 14 12 9 13 12 16 19 20 22 25 31 29 26

GFSNE_925_spd_042.txt.gz
Wind_Speed
5 6 7 9 10 13 15 16 18 14 14 19 16 21 26 27 29 30 32 32 33 36 36 37 37 39 41 41 42 42 41 41 42 42 43 45 44 44
6 8 9 10 13 14 15 17 19 22 14 24 27 27 27 28 30 30 31 32 34 35 37 38 40 39 39 39 40 40 41 41 42 42 43 42 44 45
8 9 11 12 14 15 17 18 20 22 18 29 30 30 31 30 31 29 29 32 36 37 36 37 37 38 38 39 41 41 41 42 42 43 43 44 44 44
10 11 12 13 16 16 17 19 21 23 27 27 32 31 31 32 30 29 31 36 34 33 34 36 38 39 39 38 39 39 41 41 42 43 43 43 44 45
11 13 14 15 17 17 19 21 23 25 26 28 32 32 32 30 29 32 31 31 30 32 35 36 36 38 39 38 40 41 42 42 42 42 42 44 44 45
13 14 16 16 17 19 21 23 25 26 28 28 28 31 28 29 32 29 27 30 30 32 36 35 34 36 37 38 41 42 41 41 40 40 41 42 43 43
15 16 17 17 20 21 22 24 26 27 25 26 26 24 28 29 27 29 29 31 33 31 33 34 31 35 37 38 38 37 36 37 38 39 40 40 41 42
17 18 18 19 19 20 23 24 26 28 27 25 26 25 30 30 30 29 31 25 16 30 24 39 34 37 36 35 37 38 39 40 40 40 41 42 43 43
17 19 20 19 20 22 23 26 27 28 26 32 29 30 30 31 32 33 29 31 28 35 31 34 33 35 35 37 38 38 39 39 38 39 39 40 41 43
18 20 20 21 22 23 29 27 25 28 27 27 29 31 32 32 31 34 32 35 34 31 28 15 33 33 34 35 41 38 36 34 34 35 37 38 40 40
18 20 20 22 22 26 28 27 30 30 27 25 28 31 31 34 29 27 26 23 18 26 31 24 24 31 35 38 29 24 28 36 38 37 37 38 39 40
20 21 21 21 25 27 29 30 29 29 28 31 29 27 25 24 23 22 22 21 21 14 20 20 27 23 8 21 22 36 31 32 32 37 36 36 35 36
22 23 22 24 27 30 29 29 26 29 29 28 26 24 23 22 22 22 22 23 25 24 36 28 24 28 17 20 32 31 32 32 32 36 34 33 33 33
23 24 25 28 30 30 27 22 25 26 22 22 23 24 24 24 25 26 29 29 28 33 41 36 26 28 25 18 15 28 37 38 34 31 32 35 37 37
21 25 28 27 27 23 20 23 20 18 20 21 22 24 25 28 30 28 28 27 29 30 32 32 31 31 29 25 18 33 32 33 34 29 36 33 31 30
23 25 25 23 21 21 20 18 18 19 20 21 22 25 27 26 26 25 25 26 26 30 27 26 26 30 30 30 28 28 31 13 36 34 34 34 28 21
27 23 20 19 19 19 19 19 20 21 21 21 23 25 25 25 26 25 24 24 21 23 27 28 26 27 28 31 26 28 28 27 30 33 32 26 24 16
21 17 17 18 19 20 21 22 22 23 22 24 24 24 24 24 25 26 24 21 20 22 23 27 29 28 26 22 19 21 23 23 31 30 29 20 16 13
13 15 17 18 18 19 21 22 24 25 26 23 24 24 24 24 25 23 23 21 21 22 23 25 24 18 12 13 23 16 20 27 27 26 26 25 16 16
13 16 17 18 19 21 22 24 26 26 25 24 24 25 24 22 23 22 22 21 21 23 23 23 21 19 12 13 13 33 28 24 24 21 22 25 21 16
16 17 17 19 20 22 24 25 25 26 26 26 25 24 24 22 22 22 22 25 25 20 14 19 25 28 27 23 12 15 25 26 27 24 23 16 10 8
17 18 19 20 22 24 25 25 26 26 25 24 24 24 24 22 22 22 22 21 20 20 21 24 27 24 21 15 11 14 22 27 27 25 19 23 13 6
18 19 21 23 24 25 25 25 25 26 26 25 25 25 25 25 24 22 22 21 21 19 19 21 23 21 19 16 18 16 19 22 22 22 20 24 23 22

GFSNE_925_spd_045.txt.gz
Wind_Speed
4 7 8 9 11 12 14 15 14 10 10 16 18 19 25 24 25 28 31 32 33 34 35 35 35 38 39 39 40 39 38 39 38 38 39 39 40 41
6 8 9 11 12 14 15 16 17 19 12 20 22 24 25 25 29 30 31 34 32 34 35 36 39 37 37 37 38 38 39 40 40 39 39 40 40 41
8 10 11 12 14 15 16 17 18 19 16 24 25 23 27 30 29 31 29 32 35 31 41 35 35 36 37 37 38 39 39 40 39 39 40 40 40 41
10 11 13 13 15 16 17 18 20 21 24 25 25 27 27 26 31 29 29 27 39 31 32 36 36 37 38 37 38 39 39 40 40 41 41 40 41 42
11 12 14 15 17 17 18 20 21 22 24 26 29 27 29 28 30 24 33 30 27 31 34 36 36 38 37 36 38 40 40 39 40 40 41 42 42 42
13 14 15 16 18 18 20 21 22 24 25 25 28 30 28 24 27 29 24 27 30 29 36 36 35 36 35 37 40 40 38 37 38 39 39 40 40 40
15 16 16 17 18 20 21 21 24 24 24 26 26 26 24 27 24 25 27 28 34 31 29 39 26 35 36 36 37 36 34 35 36 37 38 40 40 41
16 17 18 19 19 19 22 23 25 27 27 26 26 24 28 27 27 26 30 28 11 30 20 42 32 36 34 35 36 37 38 37 36 37 38 39 40 39
16 18 19 19 20 21 22 25 25 30 30 33 30 26 28 28 31 32 30 28 28 34 31 35 33 37 35 37 36 37 39 38 37 35 35 36 38 40
16 18 19 20 20 23 24 26 26 28 27 28 28 27 29 33 32 28 30 33 33 30 25 16 33 37 35 35 41 38 34 31 30 32 35 38 39 40
17 18 20 21 22 23 26 27 27 28 28 27 27 32 33 33 29 27 26 23 16 28 27 26 26 31 38 41 32 25 28 33 36 34 34 36 38 38
18 20 21 21 22 25 28 27 28 28 28 30 30 29 26 26 25 24 25 21 22 18 24 19 26 22 7 23 24 35 30 32 32 34 34 37 36 35
20 20 20 23 26 29 29 28 27 28 28 27 26 24 25 25 25 25 26 25 25 27 36 29 25 28 18 22 28 33 35 33 31 36 35 34 34 34
21 22 23 26 30 28 27 23 24 26 22 21 23 24 25 26 27 29 32 32 32 35 40 35 28 28 26 19 16 31 36 38 32 34 34 34 34 35
22 24 28 29 26 23 21 23 20 18 19 21 22 24 25 28 32 31 31 29 31 34 35 34 32 33 29 26 23 33 32 38 36 29 32 32 34 34
23 25 26 24 20 20 19 19 18 19 20 22 24 27 28 28 28 26 27 28 28 30 30 28 27 29 29 29 29 31 34 18 34 29 30 35 32 32
28 23 21 17 18 18 18 19 20 21 22 23 23 26 26 26 27 26 26 26 23 25 29 31 28 28 31 31 27 31 30 30 30 30 29 31 30 29
20 17 16 17 17 18 20 22 23 23 23 24 26 25 25 25 26 27 25 23 23 24 25 28 29 29 26 23 24 24 29 28 31 31 29 23 24 31
14 15 16 17 18 19 20 22 25 26 26 24 24 26 26 25 26 26 25 23 22 24 26 27 25 20 12 14 31 22 23 32 30 28 26 22 22 30
14 15 17 18 19 21 22 24 26 27 26 25 26 26 26 24 25 25 24 22 23 24 24 26 23 21 12 14 16 39 31 27 26 25 28 26 24 23
16 17 18 20 21 23 24 25 26 27 27 27 27 26 26 24 25 25 25 28 27 22 17 22 27 30 31 27 15 20 30 29 29 29 28 21 10 10
18 19 20 21 23 25 26 26 27 27 27 26 27 27 27 25 26 26 25 24 24 24 24 26 29 28 23 18 11 17 26 30 31 29 24 18 12 5
20 21 22 24 25 26 26 26 27 28 28 27 28 28 28 27 28 26 25 25 25 20 22 24 26 24 22 18 21 17 23 23 25 24 21 26 20 17

GFSNE_925_spd_048.txt.gz
Wind_Speed
2 3 6 6 8 10 11 12 10 5 8 7 17 17 28 28 27 28 33 34 30 35 33 34 36 35 37 39 38 36 35 34 34 34 34 34 35 35
4 6 7 9 10 12 14 14 16 18 8 19 23 26 28 27 29 32 32 32 35 33 35 35 35 39 34 34 36 37 37 36 36 36 35 35 35 36
5 7 9 10 13 13 14 17 19 21 14 24 26 27 28 30 33 30 33 33 33 30 36 35 32 33 38 36 37 37 38 38 37 37 37 36 36 36
7 9 11 12 13 15 16 17 18 20 24 23 24 24 26 29 32 34 31 30 34 35 30 31 38 34 37 37 36 36 36 36 37 37 37 37 37 37
9 11 13 15 16 16 17 16 18 22 24 23 25 25 28 28 30 28 31 33 30 28 33 33 36 35 35 37 35 35 36 37 36 36 36 36 36 37
11 13 14 15 17 16 18 22 19 22 23 23 23 26 25 24 28 27 29 25 31 29 34 35 29 36 33 33 36 36 34 34 33 33 33 34 34 35
13 14 14 14 16 18 19 19 23 24 23 19 22 26 25 25 23 24 26 30 35 32 27 35 27 35 36 33 34 34 33 33 34 35 35 35 35 35
15 16 17 16 17 17 19 21 22 25 23 25 25 22 24 24 24 24 29 27 12 25 21 36 31 34 33 32 34 35 37 34 35 36 36 35 36 37
16 18 18 17 19 21 21 22 23 23 27 31 29 27 29 29 29 28 30 27 27 32 27 31 33 33 32 34 35 35 39 37 33 31 30 30 31 34
16 18 19 19 21 22 25 23 24 28 27 27 29 30 28 33 32 28 28 29 32 29 25 18 33 35 36 34 38 37 32 29 29 31 34 33 32 33
16 17 20 21 21 22 24 28 26 25 23 28 29 29 30 31 28 28 24 23 20 28 27 24 26 30 38 39 31 25 26 32 33 31 32 32 32 33
18 21 19 20 22 24 27 26 23 25 31 29 27 32 26 27 26 24 25 21 22 21 23 19 26 21 9 25 20 33 30 32 32 33 30 33 32 31
20 22 22 22 24 27 28 27 26 28 26 25 28 26 27 27 26 26 25 24 26 26 36 28 25 27 18 23 26 29 34 36 30 35 32 31 31 31
22 22 25 25 28 27 25 23 24 24 25 24 23 25 25 27 28 30 34 33 33 34 40 35 27 28 27 23 17 31 34 36 30 32 34 34 33 33
22 23 26 26 26 22 21 22 21 23 22 21 21 24 26 30 33 30 33 31 33 35 35 34 33 32 29 27 25 32 32 33 34 27 33 34 31 32
24 23 24 24 18 19 21 21 22 21 21 22 24 28 29 29 29 28 27 29 28 31 30 28 27 28 29 29 30 31 33 19 34 33 31 33 33 31
26 24 23 20 21 19 19 20 22 22 22 24 26 27 29 28 29 28 27 27 22 26 29 31 28 28 32 33 30 31 31 30 32 32 31 32 34 29
19 18 17 18 18 20 21 23 23 24 24 25 27 27 26 26 27 28 26 24 23 26 26 28 30 28 26 23 23 26 27 29 32 33 32 28 28 29
18 20 19 18 20 21 22 23 25 28 28 26 26 27 27 26 27 26 26 24 24 25 27 28 25 21 12 14 27 19 22 30 32 29 28 26 24 31
18 20 20 20 21 23 24 25 28 29 28 28 28 27 27 25 25 25 25 24 24 25 25 26 23 21 13 15 17 39 28 27 25 28 29 28 28 33
20 20 20 22 24 25 26 27 27 28 29 28 29 27 28 26 26 26 26 29 29 24 20 23 27 30 30 31 15 21 32 30 29 29 30 25 17 16
20 21 23 24 25 27 28 29 29 29 29 28 29 29 29 26 26 26 25 24 24 24 26 25 28 27 25 19 12 19 26 33 35 31 30 26 16 6
24 24 26 27 28 29 28 29 29 30 30 30 30 30 29 27 27 26 26 25 25 24 21 24 26 25 23 21 21 18 24 27 27 27 29 24 22 21

GFSNE_925_spd_051.txt.gz
Wind_Speed
3 2 3 3 4 5 6 7 4 3 5 4 9 17 28 29 26 25 29 34 29 30 31 32 30 32 33 33 34 30 32 32 32 33 34 34 35 34
2 3 4 6 6 8 10 11 11 13 4 11 22 26 28 26 28 28 34 31 31 30 30 32 32 33 31 30 32 35 32 33 34 35 34 34 35 35
3 5 6 7 9 9 9 12 15 16 11 18 20 23 26 29 31 33 32 32 31 30 31 31 30 30 34 35 33 34 34 34 35 35 34 34 34 34
4 6 8 9 11 12 13 14 15 15 18 20 21 23 26 28 30 32 30 28 30 31 28 28 35 31 35 34 33 33 34 34 34 34 34 35 35 35
5 8 10 11 13 14 13 14 16 20 21 25 25 24 26 29 30 28 28 30 30 27 31 31 32 32 30 32 34 32 33 34 33 33 33 34 34 34
6 8 10 12 12 12 15 17 17 18 21 24 21 22 22 27 26 26 28 26 31 30 31 31 29 29 32 32 33 32 31 31 30 30 31 32 33 33
8 10 10 12 13 14 16 16 20 22 23 21 16 19 24 24 22 25 26 31 35 32 29 26 25 33 34 31 31 31 29 31 33 33 32 32 32 32
11 12 13 13 16 14 17 18 18 22 21 18 19 21 23 23 25 25 27 27 13 28 14 28 30 32 32 31 30 32 35 34 32 33 33 31 30 30
11 14 16 15 14 17 19 19 21 18 21 25 25 23 24 27 30 29 26 23 25 33 28 28 32 31 32 32 33 35 35 33 31 28 27 27 28 29
11 13 16 19 18 18 21 21 22 23 25 24 25 28 29 28 27 26 27 26 30 32 26 20 30 32 34 32 35 33 29 27 26 28 30 30 28 29
12 14 17 19 19 20 23 25 25 23 23 24 24 24 25 29 25 25 23 21 20 27 29 23 22 27 33 34 26 21 22 28 32 29 28 29 30 29
17 17 18 18 20 21 24 23 20 25 28 26 24 31 29 28 23 23 25 20 22 17 21 11 25 20 9 20 15 31 31 30 30 31 30 29 28 28
19 22 22 21 21 24 23 24 22 25 21 24 28 26 27 27 26 27 24 24 25 24 37 26 23 26 17 22 24 28 33 36 31 33 33 30 26 25
20 22 23 21 24 24 21 19 21 21 25 23 22 23 24 26 29 30 32 30 30 32 38 34 24 27 25 23 19 26 31 35 32 32 33 32 29 28
19 21 21 22 21 18 19 20 18 22 22 20 21 24 26 30 34 30 34 31 31 34 33 30 31 32 27 26 25 32 31 30 34 31 29 29 32 30
21 17 18 18 17 17 19 20 21 20 20 21 23 27 28 27 28 28 27 28 27 32 34 28 27 29 29 29 29 30 33 20 31 32 32 33 32 32
20 18 21 20 20 18 18 19 21 22 21 23 23 25 26 26 27 28 26 26 22 26 29 33 31 30 32 33 30 32 32 31 33 32 28 31 32 31
16 16 16 16 16 18 20 23 22 22 22 24 25 25 25 26 27 27 25 23 23 26 27 29 29 28 27 24 27 31 33 29 33 31 29 25 32 31
16 17 16 17 18 20 21 22 24 27 28 25 25 27 27 26 26 26 24 24 24 25 28 28 25 21 12 14 27 22 25 29 31 30 27 26 26 35
18 19 19 19 20 22 23 23 26 27 26 27 27 27 27 25 25 24 24 23 23 25 26 27 23 22 13 15 18 39 27 26 25 27 28 30 31 34
20 20 21 22 23 24 25 26 26 26 27 28 29 27 27 25 25 25 25 28 28 24 20 23 29 31 32 30 16 22 31 29 28 29 28 24 19 21
21 22 24 24 25 26 27 28 28 29 30 29 29 29 28 26 25 25 25 24 24 24 26 30 30 29 25 19 13 21 25 31 34 29 28 26 17 7
22 24 26 26 27 27 27 28 27 30 31 31 30 30 29 27 28 26 26 25 25 24 23 27 28 26 23 21 22 19 26 28 27 26 29 27 28 27

GFSNE_925_spd_054.txt.gz
Wind_Speed
8 6 4 3 3 3 4 5 4 2 3 3 5 7 26 28 28 25 25 28 27 27 28 29 29 30 31 31 32 31 28 30 31 34 34 34 35 35
6 4 3 4 5 4 6 7 8 10 3 5 17 27 28 28 27 26 29 27 26 27 27 27 29 29 29 29 29 31 33 31 33 33 35 35 35 35
4 4 4 6 6 7 7 8 11 13 9 14 18 25 27 28 30 31 31 30 31 27 28 28 28 28 30 31 30 32 32 32 32 34 35 36 34 34
3 5 6 7 8 8 10 12 13 15 18 16 20 24 25 28 29 29 30 30 30 29 29 28 30 30 30 31 29 30 31 32 33 33 34 35 35 35
5 9 8 8 9 10 11 13 15 17 19 23 21 25 27 27 29 28 27 28 29 27 29 29 30 30 28 29 30 32 32 32 31 33 33 33 33 33
7 10 9 9 9 10 12 14 15 16 19 23 22 23 24 26 25 25 25 26 29 29 31 28 27 25 30 33 32 33 31 30 31 31 31 31 32 33
7 7 7 7 9 11 14 14 17 20 22 24 19 20 19 21 23 24 25 28 29 31 29 21 27 29 34 33 31 31 30 29 30 32 34 33 33 33
6 7 8 9 9 10 12 15 18 21 21 18 18 15 21 22 24 24 26 25 10 22 17 30 30 31 33 34 30 30 33 33 33 33 33 32 32 31
6 8 8 10 13 15 14 15 17 18 20 23 23 22 24 28 31 29 23 20 25 32 30 29 30 31 33 31 31 33 35 32 30 29 29 28 28 28
7 7 10 14 15 16 18 20 21 21 21 22 26 29 29 26 24 24 27 27 28 29 28 19 28 32 33 31 33 33 29 27 26 26 28 31 32 31
9 11 13 15 16 17 20 22 20 20 23 23 22 23 24 26 27 25 23 21 20 24 28 23 20 28 30 35 27 23 23 25 29 33 31 30 29 30
13 16 16 16 17 17 21 21 19 25 25 21 22 30 29 27 21 20 23 20 21 15 13 9 20 19 9 18 17 26 32 33 31 30 31 31 29 28
18 19 19 17 18 20 21 21 20 22 20 24 28 27 28 26 25 26 25 24 24 24 34 26 18 24 17 18 20 26 33 36 35 33 30 29 28 26
17 19 20 18 21 20 18 17 19 19 21 22 20 22 22 26 30 29 30 28 28 34 38 33 21 25 26 24 19 27 29 32 32 33 31 29 25 25
17 17 17 18 17 17 16 16 15 18 20 20 20 23 25 29 32 29 29 31 31 35 35 31 31 31 28 27 25 31 31 27 32 31 28 29 30 26
17 16 16 16 14 14 16 17 18 18 18 20 23 25 27 26 27 27 26 26 26 31 36 31 26 29 30 30 29 32 32 19 28 32 31 30 29 28
16 19 19 20 20 19 19 21 22 21 20 22 21 23 24 24 26 27 25 26 22 26 30 34 32 29 32 33 30 33 32 31 31 31 29 30 31 31
13 15 17 17 17 18 19 23 23 22 23 23 23 23 24 25 27 28 25 23 23 26 27 30 30 29 28 25 28 34 34 30 33 30 28 26 30 31
14 16 16 16 18 20 21 23 25 28 28 24 26 28 27 25 25 26 25 23 24 25 28 29 25 21 12 13 26 23 28 29 31 31 28 28 27 34
15 16 17 19 20 20 22 23 26 27 25 27 28 26 27 25 25 24 24 23 23 25 26 26 23 22 12 16 18 40 29 26 25 27 30 30 33 37
17 18 19 20 21 22 24 25 26 27 25 28 30 28 29 25 26 25 26 28 28 24 21 24 29 32 33 31 16 23 33 30 28 29 29 24 23 26
18 19 21 22 23 24 25 27 28 28 29 29 30 30 29 27 26 27 26 25 25 25 27 31 32 30 26 20 12 22 26 31 31 27 27 27 21 6
19 20 23 23 23 24 26 27 28 30 30 31 31 31 30 28 29 27 27 27 25 25 26 27 29 27 24 22 22 20 26 27 27 26 27 25 25 25

GFSNE_925_spd_057.txt.gz
Wind_Speed
10 8 6 5 3 3 3 4 3 2 2 4 5 5 14 24 24 23 22 25 24 24 24 25 26 26 27 28 29 29 29 29 30 31 32 34 34 34
9 8 6 4 4 5 5 5 8 9 3 7 9 23 24 24 25 23 26 27 25 24 25 25 25 26 27 27 28 28 31 32 32 32 33 34 35 35
9 6 4 3 6 6 6 7 9 12 11 14 19 23 24 27 27 28 29 31 30 27 25 26 25 25 26 27 28 29 30 31 30 31 33 33 34 35
6 6 3 4 7 7 9 10 13 15 18 16 21 24 25 25 27 29 31 31 31 31 28 26 26 27 27 27 27 27 28 29 31 33 34 34 35 35
9 6 3 6 8 9 10 12 14 15 18 21 19 22 26 25 28 30 30 28 28 30 28 26 25 27 25 25 28 29 31 32 32 32 33 34 34 35
4 2 5 7 8 9 10 13 15 16 17 22 23 23 24 26 26 25 24 25 28 32 31 26 24 23 26 31 31 31 31 30 30 31 32 34 34 33
4 1 3 5 6 8 12 15 15 17 21 24 21 21 22 21 20 25 24 25 25 30 29 25 23 29 35 31 31 29 28 28 29 30 32 34 35 35
3 4 7 8 9 10 12 14 16 19 20 20 21 16 19 22 24 23 24 22 8 20 20 28 29 31 35 34 30 29 31 32 33 33 34 35 34 34
7 9 8 9 11 13 13 13 15 17 19 22 23 23 25 27 30 29 25 22 22 29 30 32 25 30 35 33 31 31 33 32 31 30 30 30 31 30
7 7 10 12 14 15 16 18 19 20 21 22 25 29 28 27 24 25 26 29 26 25 23 21 22 28 33 30 33 31 29 27 27 27 27 28 30 32
5 8 12 15 16 15 18 19 19 19 22 22 20 21 23 27 27 26 25 20 20 22 22 24 17 27 30 32 23 23 23 25 28 31 33 33 32 33
9 13 13 13 14 16 17 19 19 24 22 20 23 29 28 26 23 19 22 21 20 15 8 9 20 16 10 18 17 24 33 34 30 30 30 31 31 31
14 16 16 15 16 18 18 18 18 20 19 23 26 26 27 27 27 26 24 23 23 22 30 23 19 22 18 19 18 24 33 36 36 35 32 29 28 27
15 17 16 15 17 16 16 16 16 17 20 22 22 24 24 29 31 30 29 28 28 32 39 30 22 24 25 25 21 26 28 32 33 35 32 30 24 24
13 12 14 15 15 15 14 14 14 17 19 21 21 23 26 29 31 31 31 30 31 33 34 31 30 31 28 27 27 33 31 27 33 33 29 29 32 31
13 15 15 13 12 12 13 14 16 16 16 19 23 26 26 27 28 28 28 28 27 32 34 31 27 28 31 31 30 32 33 19 27 31 30 31 30 30
13 17 18 18 18 18 18 19 19 20 20 21 20 22 24 25 27 29 28 27 22 26 31 35 32 29 31 33 30 34 32 30 30 29 26 29 31 30
13 15 17 17 18 19 20 22 23 22 23 24 23 23 25 26 27 27 24 23 23 26 27 30 29 27 25 25 29 35 34 29 33 30 27 26 28 31
12 14 15 17 19 21 21 22 23 26 25 24 25 28 29 26 25 26 25 23 24 25 28 29 26 19 11 13 27 22 27 31 30 29 29 27 29 36
12 13 15 17 19 20 22 23 26 28 27 26 28 27 28 26 26 25 24 24 24 26 27 27 24 21 12 15 17 40 27 25 25 28 29 29 31 36
15 15 16 18 20 21 22 24 25 27 24 27 29 29 29 25 26 25 26 28 28 25 22 25 32 34 34 30 15 23 34 28 25 28 29 24 23 26
15 17 19 20 20 21 22 24 26 28 29 29 30 29 29 27 27 27 26 25 26 26 28 30 32 30 26 20 13 23 26 32 29 26 26 27 22 6
17 19 21 21 21 22 22 24 26 28 29 31 31 30 29 28 30 29 27 26 27 26 27 28 29 27 25 22 23 21 26 28 27 24 26 23 23 27

GFSNE_925_spd_060.txt.gz
Wind_Speed
17 15 13 11 9 5 5 7 5 3 2 3 5 6 8 14 23 21 22 22 21 23 25 25 25 25 25 26 26 27 27 27 28 28 30 31 30 31
16 13 10 8 8 5 3 4 4 7 3 8 6 12 19 23 23 24 23 24 25 26 25 25 25 25 25 26 27 27 28 28 29 29 29 30 31 30
13 10 8 5 1 3 4 5 9 9 7 8 14 20 23 24 26 25 26 28 31 30 27 25 25 25 26 26 27 27 27 28 29 29 29 29 30 30
11 8 7 3 1 4 8 9 10 11 12 11 17 21 22 24 25 26 28 29 32 31 27 25 25 26 26 26 26 26 26 27 28 30 30 32 32 33
9 7 4 0 4 6 9 10 10 12 14 15 16 20 23 23 26 28 29 30 29 32 27 25 24 25 24 23 25 27 30 30 31 31 31 32 33 34
7 3 2 3 7 4 9 10 10 12 15 16 20 22 22 24 23 24 23 25 29 31 32 24 23 23 25 28 31 31 30 30 29 29 30 30 31 33
3 2 1 2 2 2 6 9 11 12 16 20 19 19 21 20 18 23 24 26 25 28 27 28 28 31 36 34 31 30 28 27 27 29 30 31 31 33
3 1 1 2 5 6 8 9 11 14 16 18 20 17 17 22 23 23 23 22 11 22 21 31 31 32 34 34 30 28 29 31 31 30 31 31 32 32
3 2 2 4 7 11 12 11 12 14 15 19 21 23 23 26 30 29 24 21 23 28 30 33 26 30 32 33 30 31 32 31 29 28 28 29 30 30
4 4 7 11 13 13 14 16 16 16 18 18 21 25 24 23 22 23 25 28 26 26 22 21 24 27 30 30 33 31 27 26 26 27 27 28 29 31
4 8 11 12 13 12 15 15 17 19 21 19 17 19 21 24 24 24 25 19 19 20 22 22 20 24 29 32 19 19 22 25 29 31 32 31 30 31
8 10 10 11 12 13 15 17 17 23 20 21 22 26 24 24 20 18 20 20 18 14 8 7 20 16 10 18 17 24 32 32 31 31 32 32 31 31
9 11 13 12 13 15 15 16 17 18 17 21 23 24 23 23 24 23 22 20 19 20 30 21 18 23 16 18 19 26 31 35 36 36 34 30 28 26
10 11 12 14 15 14 13 13 13 14 17 19 21 23 23 26 27 27 26 25 25 28 34 29 20 24 25 25 21 28 27 32 34 34 33 32 26 25
10 9 13 13 12 12 11 11 11 14 16 18 20 23 25 26 27 30 30 29 30 32 30 28 28 30 27 26 26 34 30 26 33 32 28 30 33 32
12 11 12 10 9 10 11 12 13 14 14 18 21 24 25 27 29 28 30 30 27 34 31 26 24 26 30 29 29 33 34 18 25 30 30 32 32 31
9 13 13 13 14 15 16 17 17 18 19 20 22 22 26 27 29 30 28 27 19 23 31 37 30 28 30 31 30 33 31 31 30 31 26 29 31 31
9 11 13 14 15 17 18 20 20 20 21 22 22 23 25 27 29 30 24 22 22 26 26 31 30 28 24 22 27 35 32 29 32 30 27 26 30 30
10 12 13 15 17 18 19 19 21 23 23 22 23 26 27 27 24 27 26 23 24 25 27 28 26 20 11 12 28 22 28 34 32 29 27 26 28 36
11 13 15 16 18 20 21 21 23 25 25 22 25 26 26 25 26 25 24 24 24 26 27 27 24 22 11 15 17 40 24 24 25 28 29 28 30 34
12 14 16 18 20 20 21 22 23 24 21 23 25 27 28 26 26 25 26 28 28 25 23 26 31 32 33 29 15 24 30 25 24 28 29 24 22 23
13 15 18 20 20 20 21 22 23 26 26 25 27 28 29 28 26 28 27 26 26 26 27 31 32 30 26 19 14 23 26 30 32 28 24 25 22 7
14 16 19 21 21 21 22 23 24 26 26 27 28 30 30 29 30 29 29 27 25 27 28 28 29 27 24 22 22 21 27 29 27 24 26 26 25 24

GFSNE_925_spd_063.txt.gz
Wind_Speed
22 18 14 12 11 9 7 8 5 2 2 3 5 7 10 11 14 18 17 19 19 20 22 25 25 25 25 26 26 27 27 27 28 27 28 28 29 30
20 19 17 13 9 9 5 4 2 3 2 6 7 7 11 16 19 18 18 21 20 22 24 25 25 24 25 26 27 27 27 28 28 28 29 28 29 29
21 20 17 13 11 7 6 2 2 5 7 6 9 13 16 18 19 20 22 21 20 22 25 25 24 23 25 25 26 27 27 28 28 28 28 29 28 29
21 17 13 8 5 3 1 5 4 9 9 9 9 7 14 18 21 21 23 21 21 24 25 23 23 23 23 24 25 25 26 26 27 29 30 31 31 31
17 13 11 6 4 2 2 8 6 10 9 9 10 9 11 19 16 17 17 20 20 23 22 22 21 21 21 22 24 25 28 29 31 32 32 32 33 33
14 11 10 8 3 6 9 5 6 10 11 10 11 11 11 12 15 16 19 20 22 22 24 18 21 21 24 26 27 28 28 29 29 30 30 31 31 32
9 6 4 4 4 3 1 4 8 9 8 11 11 11 13 15 18 20 21 20 22 23 19 18 21 23 26 25 26 26 26 26 27 28 29 30 31 31
9 7 5 4 4 3 2 5 8 8 8 9 10 14 15 18 18 18 21 21 12 16 19 27 26 29 28 23 25 27 29 30 30 30 31 32 31 30
7 7 5 2 2 4 5 5 7 8 9 12 16 17 18 19 20 19 19 20 21 30 28 28 26 27 24 23 26 29 30 30 29 27 27 28 28 29
7 4 3 3 6 6 7 8 9 11 13 12 15 16 16 17 16 18 22 23 23 27 20 20 23 24 25 25 28 29 24 26 26 26 27 28 29 31
5 4 5 6 6 7 9 9 10 12 15 11 12 15 16 18 17 17 17 17 16 23 21 19 17 25 28 30 20 19 23 25 29 32 33 32 31 31
4 6 7 7 8 8 9 10 9 13 13 13 16 19 18 18 15 11 12 15 16 14 6 7 19 19 10 16 14 23 25 27 29 30 31 32 31 31
5 6 8 8 9 9 8 10 9 13 12 17 17 17 17 15 14 14 14 14 17 18 25 16 16 23 16 20 20 23 28 32 29 29 28 28 26 25
5 6 7 9 9 8 7 8 8 10 12 12 12 13 14 17 20 21 22 21 19 26 31 26 17 21 23 24 23 26 26 30 29 29 26 26 24 24
6 6 9 9 8 7 7 7 8 9 8 9 12 14 15 19 22 24 25 25 27 27 24 22 24 28 24 26 26 34 28 26 30 28 27 25 26 23
8 10 9 7 7 7 8 8 8 8 8 10 12 15 17 18 20 22 23 26 25 27 23 21 18 22 28 29 27 32 31 16 25 28 26 29 28 26
7 9 8 9 9 9 10 10 10 10 10 12 13 15 17 18 21 25 22 20 18 23 28 31 23 22 26 29 30 29 28 29 27 29 26 28 29 26
6 6 6 7 7 9 10 12 11 12 13 15 14 15 17 20 23 24 20 20 21 23 25 27 27 25 21 21 27 31 30 29 30 28 26 26 30 26
5 6 7 8 10 11 11 11 13 16 18 17 16 18 19 21 20 22 22 21 23 24 26 26 24 21 11 12 26 18 24 30 29 27 25 24 27 33
7 8 10 11 12 13 13 15 16 17 19 18 19 21 23 22 22 21 23 22 22 24 25 25 22 21 15 15 17 38 22 22 24 26 28 28 29 32
8 9 11 13 15 15 15 16 17 19 18 20 21 22 24 22 22 24 24 27 28 24 22 25 27 29 30 27 15 24 30 23 24 27 29 25 24 22
10 11 13 15 17 18 18 18 19 20 21 22 22 23 25 25 24 26 26 26 26 25 26 28 30 28 24 20 18 26 27 30 29 29 28 28 24 9
12 13 15 17 18 19 20 19 20 21 22 23 24 25 27 26 28 28 27 28 23 27 28 29 28 26 23 22 25 24 29 30 29 29 31 22 28 33

GFSNE_925_spd_066.txt.gz
Wind_Speed
25 26 21 18 14 10 7 3 3 3 2 4 5 7 10 11 14 15 17 16 17 19 19 22 24 24 24 25 25 25 26 27 28 29 29 29 29 30
22 21 17 12 10 8 10 9 4 4 2 3 5 5 7 13 19 19 16 17 18 19 21 22 23 25 25 25 25 25 27 27 28 29 29 30 30 31
18 17 17 15 16 14 10 8 6 5 2 3 8 10 11 16 15 14 15 18 19 19 22 23 24 24 24 24 25 25 26 27 28 29 29 30 29 30
22 23 20 16 13 9 7 5 5 4 4 6 8 9 8 12 14 16 15 17 19 20 21 22 23 23 23 23 23 23 24 26 27 28 29 29 30 32
21 20 17 13 10 7 6 5 4 3 6 7 9 8 10 9 15 16 16 16 18 20 20 20 22 21 21 22 23 25 27 27 29 30 31 32 33 34
19 16 13 10 8 7 3 2 2 4 7 10 10 9 11 11 13 16 18 17 19 19 19 19 19 20 22 23 25 27 28 27 27 28 29 30 31 32
17 14 10 6 3 4 3 3 3 5 6 9 10 11 12 12 13 15 17 17 20 21 18 16 19 22 23 23 24 24 23 25 26 27 28 30 30 31
14 11 9 7 4 4 5 4 5 8 8 10 11 12 13 13 14 14 16 18 13 13 13 24 23 25 25 23 24 26 28 29 29 29 30 31 32 32
13 10 7 3 2 3 4 5 6 7 8 10 14 14 15 13 12 14 15 16 20 23 21 25 23 24 22 23 25 28 30 30 29 28 27 27 28 29
9 7 4 1 3 3 5 6 6 7 8 10 12 14 12 12 13 16 19 21 22 21 18 21 22 24 24 25 28 30 28 27 27 28 27 28 29 31
5 3 3 2 4 4 7 6 9 9 10 10 10 13 14 15 14 14 15 16 17 22 20 18 16 21 26 30 22 19 21 24 28 29 30 31 31 31
3 3 2 3 4 5 7 8 9 9 8 9 9 10 11 11 10 9 11 14 14 13 6 7 20 18 8 18 15 23 24 24 27 29 32 31 29 29
1 2 3 4 6 6 6 7 7 9 9 10 10 10 9 9 8 9 11 13 16 19 22 16 16 23 16 19 21 23 28 29 26 28 28 28 26 23
2 3 4 7 6 5 5 5 7 8 7 8 9 10 10 10 10 13 16 16 18 25 30 24 15 19 21 25 22 24 26 30 28 28 24 24 25 25
3 4 6 6 5 4 5 5 6 6 7 8 10 12 11 14 17 17 20 20 20 24 25 21 22 23 23 26 25 31 29 26 31 27 24 24 25 23
4 5 5 4 4 4 5 5 5 6 7 9 11 13 13 13 15 17 19 20 21 22 18 21 20 22 25 25 25 30 29 18 27 29 28 29 27 27
5 5 3 3 4 4 5 6 6 7 8 9 11 12 13 13 15 16 17 21 21 24 25 23 20 22 26 31 31 28 29 29 29 30 28 29 29 28
4 4 4 5 5 7 8 8 8 8 9 11 12 12 13 14 16 18 18 19 21 22 24 26 27 26 23 23 27 34 28 30 31 28 26 25 30 27
4 4 5 5 7 8 9 10 11 11 12 12 13 13 13 14 17 18 20 21 21 22 25 26 25 22 12 12 21 20 27 27 29 29 24 22 25 31
4 5 6 6 8 9 10 11 12 12 12 13 14 15 15 15 16 19 21 23 22 24 26 25 23 23 17 16 20 34 25 27 24 27 28 27 30 34
5 6 6 7 9 10 11 12 12 13 14 16 16 16 15 16 19 20 22 26 27 24 24 24 27 30 32 31 17 23 27 28 29 31 31 26 24 25
6 8 8 9 10 11 11 12 13 14 15 15 16 17 18 18 21 22 23 25 25 26 28 27 31 28 25 22 20 27 29 30 30 30 30 32 27 7
8 9 10 10 11 11 13 13 15 16 18 19 19 20 20 21 23 23 25 26 27 28 25 29 29 27 24 22 27 27 29 31 28 29 28 24 29 36

GFSNE_925_spd_072.txt.gz
Wind_Speed
29 26 22 21 21 20 17 16 9 4 4 10 6 19 22 17 20 20 20 17 19 19 17 16 18 16 18 18 19 21 21 21 19 20 20 21 22 22
17 18 18 16 15 13 11 10 9 7 3 6 13 11 12 15 18 18 18 16 16 14 15 16 17 17 19 20 20 21 21 20 20 21 21 21 22 23
11 12 12 11 10 9 8 8 9 10 5 7 8 9 12 13 12 13 13 13 15 14 13 16 17 18 19 19 19 20 21 20 20 20 21 21 22 22
6 8 9 7 8 9 10 10 10 10 7 4 6 9 7 7 9 10 7 8 10 14 14 15 17 18 18 18 18 19 20 20 21 21 22 22 23 24
5 9 11 12 13 11 10 10 8 7 7 8 6 5 3 3 4 6 9 10 9 10 15 15 15 18 18 18 18 20 21 21 21 22 22 22 23 24
11 12 12 12 13 11 9 6 6 7 6 6 4 2 2 3 6 10 10 8 16 13 15 20 15 15 15 17 21 21 20 20 20 20 20 21 22 24
16 15 11 11 10 9 7 4 4 6 5 4 1 1 1 4 6 4 7 11 17 17 9 13 18 19 21 24 22 20 19 19 20 21 22 24 25 26
18 14 12 12 9 10 3 3 2 4 2 0 1 3 5 5 5 6 9 14 5 2 20 30 20 24 26 25 22 20 21 22 22 22 23 24 25 25
13 11 9 7 4 4 1 0 1 1 1 3 4 4 7 7 9 12 11 13 16 22 19 28 23 27 27 26 23 23 23 24 23 22 21 21 23 24
8 7 6 6 5 2 5 3 1 4 4 4 5 7 8 7 8 10 12 15 21 20 14 14 22 27 26 29 31 20 18 18 19 20 23 24 24 25
9 9 6 4 5 5 3 3 3 3 4 4 6 7 8 8 9 11 13 13 13 14 21 14 10 22 32 26 16 14 16 21 24 23 24 24 25 25
5 4 5 4 5 5 5 3 3 3 4 8 7 6 6 8 7 9 12 11 11 9 3 11 21 15 12 16 11 28 25 31 23 24 24 23 23 24
3 2 3 5 6 5 4 2 3 5 8 7 7 8 7 7 6 6 6 9 14 16 19 15 15 23 13 18 22 27 31 33 34 30 25 22 19 19
4 3 3 7 6 5 3 3 5 6 5 6 7 8 8 10 9 10 13 15 16 21 25 22 21 21 22 26 27 25 30 33 28 31 26 23 23 22
4 6 5 6 5 3 2 6 5 4 5 7 8 9 10 13 13 11 12 14 17 20 21 21 23 26 25 26 29 29 27 30 29 20 25 30 31 31
7 8 7 6 5 5 5 5 5 7 8 8 9 12 12 11 11 12 15 18 19 21 19 19 20 22 27 27 28 33 27 19 29 30 29 32 36 34
9 5 6 5 5 5 5 6 6 7 8 9 10 12 13 14 15 14 16 19 17 19 21 21 21 23 28 31 31 30 31 29 29 31 27 29 28 27
7 5 4 5 5 7 8 9 9 8 9 10 12 13 14 16 18 18 18 19 20 21 20 23 25 24 24 23 26 32 27 28 30 30 28 25 30 27
4 5 4 5 6 7 8 8 10 11 12 13 13 15 16 17 16 19 19 20 20 21 23 25 21 19 11 12 25 19 29 28 31 30 27 27 29 33
6 7 7 7 8 8 9 11 12 13 15 15 16 17 18 19 22 22 21 19 20 22 22 23 22 22 18 16 27 36 30 31 25 27 28 30 32 36
7 8 8 9 10 9 10 12 14 16 16 17 19 20 20 21 23 23 22 21 22 20 21 24 27 29 33 35 19 24 30 29 28 30 32 28 27 29
9 10 12 11 12 11 13 14 16 17 19 20 19 21 22 22 23 23 23 22 22 22 25 29 31 30 27 23 25 30 30 31 31 32 31 30 28 7
13 14 15 14 14 14 14 16 16 18 20 21 22 23 23 24 24 25 25 24 23 24 26 29 29 24 26 27 29 27 29 32 31 31 32 29 31 35

GFSNE_925_spd_075.txt.gz
Wind_Speed
19 19 22 21 21 19 17 15 12 4 6 11 11 19 21 24 23 25 24 20 18 16 16 20 18 16 16 16 17 17 18 18 17 16 16 17 17 18
11 10 10 10 11 11 12 12 11 7 3 13 17 10 21 20 20 18 16 16 17 16 14 14 16 15 16 16 17 18 17 17 17 17 17 18 18 18
5 5 5 6 6 6 6 6 7 8 4 3 7 11 10 11 10 10 11 16 15 12 12 12 14 16 15 16 16 16 16 16 16 17 17 18 18 18
0 0 0 1 2 3 4 7 8 4 2 4 5 8 8 7 8 9 9 8 8 8 9 11 13 15 15 15 15 15 16 16 17 17 18 18 19 20
4 5 6 6 7 6 6 6 6 6 4 4 3 7 6 6 6 4 4 7 7 7 11 12 11 15 14 13 13 14 16 17 17 17 18 19 20 20
12 12 11 10 10 8 7 6 4 6 6 5 2 3 3 3 4 4 7 5 8 12 14 13 9 10 13 14 15 15 15 15 15 16 16 18 19 21
17 16 14 12 10 8 6 7 6 4 2 4 3 2 2 1 3 2 4 8 13 9 4 16 13 12 11 14 15 14 13 15 16 17 18 20 21 22
15 14 13 11 9 8 8 5 5 4 2 2 1 0 4 2 1 3 7 8 3 3 18 22 15 16 16 15 15 15 17 17 17 18 19 20 21 22
11 9 7 5 4 5 4 1 2 0 1 3 4 5 4 3 4 6 6 8 10 14 17 14 16 17 17 20 22 18 16 14 14 14 16 18 20 21
9 8 8 7 7 5 1 1 1 1 3 4 5 6 8 7 7 9 10 12 16 11 5 6 12 19 28 24 9 7 8 12 15 18 19 20 20 22
10 8 5 5 3 3 2 2 3 2 3 2 3 5 6 7 7 9 11 10 7 4 8 5 7 25 23 12 11 4 16 20 20 19 19 20 21 21
4 4 3 2 3 3 4 2 2 2 3 4 3 4 4 4 5 8 8 7 6 6 2 15 11 12 11 9 8 27 25 26 21 22 22 19 18 19
2 0 1 3 5 4 3 2 1 4 6 6 4 5 4 3 3 4 5 6 9 10 13 14 12 16 8 15 19 23 24 31 34 30 25 18 15 16
1 2 4 5 5 4 3 2 3 5 4 4 4 4 5 6 8 9 10 9 9 14 17 15 15 20 19 22 20 24 30 32 27 31 26 21 23 23
2 5 5 6 4 3 0 4 3 4 4 6 7 7 9 13 11 8 9 10 14 15 14 14 18 20 22 22 26 29 27 28 26 17 26 31 29 29
7 8 4 4 3 3 3 3 4 5 6 6 8 10 9 10 11 11 14 15 19 20 14 14 15 18 24 25 27 30 26 17 28 29 29 33 32 31
7 3 2 2 2 2 2 3 4 6 7 8 8 11 12 12 14 14 15 17 18 18 24 21 16 19 25 28 28 28 28 26 28 31 29 30 28 26
6 3 3 4 4 4 5 6 7 5 7 10 11 12 14 15 17 15 16 16 19 19 18 22 23 24 22 21 23 29 27 29 31 29 27 24 28 27
5 5 6 5 5 6 7 7 8 8 10 11 12 13 14 16 16 20 21 20 17 18 22 25 24 17 10 11 24 18 25 30 30 28 28 27 28 31
7 8 9 8 8 9 7 8 9 10 11 13 13 15 17 17 19 21 22 21 21 21 20 20 19 20 17 14 25 37 30 28 27 27 28 30 31 35
8 10 10 11 12 11 10 11 12 13 13 14 16 16 17 18 21 22 22 19 20 20 21 21 24 24 28 30 20 25 28 28 30 34 31 27 26 30
11 12 12 13 14 14 12 13 15 15 16 16 17 18 19 19 21 22 21 21 21 21 23 26 27 26 26 22 24 28 32 32 31 31 30 29 28 7
13 14 15 16 15 15 15 15 16 16 16 17 18 19 20 22 22 22 23 23 23 23 23 25 27 25 26 27 27 28 29 32 30 30 34 29 29 31

GFSNE_925_spd_078.txt.gz
Wind_Speed
13 10 9 14 15 18 19 17 10 3 4 10 8 16 20 20 19 22 22 19 18 19 17 15 13 17 16 15 16 16 16 16 17 17 16 17 17 18
5 9 5 4 4 6 8 9 10 8 3 8 14 12 19 20 19 18 18 17 17 13 13 12 12 13 14 14 16 16 16 15 16 16 16 17 18 17
2 2 1 1 1 1 2 3 3 4 2 1 6 10 10 13 15 17 12 11 11 11 10 10 12 12 12 13 15 15 14 14 15 16 16 17 17 18
2 2 2 2 3 2 2 3 2 2 1 2 1 4 5 8 8 7 5 5 6 6 8 9 9 11 12 12 14 14 13 14 15 16 16 17 18 19
5 5 7 5 7 7 7 7 6 5 4 3 3 2 3 3 3 4 4 4 5 6 7 10 10 11 12 11 11 11 14 16 16 16 17 18 19 20
10 10 11 10 10 9 8 7 7 7 7 7 6 4 3 2 4 2 2 3 5 9 12 11 6 9 12 12 12 13 15 15 15 15 16 17 18 19
16 16 14 12 9 7 6 6 5 6 5 4 4 2 2 2 1 0 0 4 11 9 5 9 12 10 8 10 11 12 12 12 15 17 18 19 20 21
13 12 11 10 9 9 7 5 5 3 2 1 1 1 1 1 0 1 4 5 4 3 12 19 13 8 8 9 12 13 14 15 15 17 18 19 20 20
10 8 7 7 6 5 5 4 3 2 2 2 3 3 3 4 4 5 5 5 7 13 15 12 12 11 12 18 17 14 10 8 9 12 14 16 18 20
8 7 7 8 7 4 3 1 1 1 2 3 4 4 6 7 7 7 7 7 10 12 5 4 9 18 23 17 5 2 2 9 15 14 17 18 19 21
7 8 6 6 5 4 4 1 2 1 2 1 2 4 5 6 8 9 10 9 5 3 5 4 9 22 21 9 4 5 16 16 16 17 17 19 20 20
4 4 4 4 4 4 5 3 3 3 4 5 6 5 5 4 7 8 9 8 5 4 3 7 9 9 11 8 7 21 21 17 22 20 21 19 18 18
1 1 1 3 5 4 3 3 1 4 5 6 4 4 4 3 4 7 7 8 8 10 10 11 7 12 7 12 19 20 17 26 29 24 23 16 14 15
1 2 4 4 5 3 3 1 2 5 4 3 3 3 4 6 8 10 11 11 11 13 15 13 12 17 18 19 15 19 25 28 22 27 17 20 22 22
2 3 4 4 4 3 1 2 4 3 3 4 4 5 7 10 9 9 10 12 14 16 18 15 18 20 20 19 22 26 24 24 25 15 26 29 28 29
6 6 3 3 2 2 2 3 3 3 3 4 5 7 7 10 10 10 13 15 17 18 14 10 13 16 24 25 25 29 25 16 24 29 28 30 31 28
5 4 2 2 2 2 2 3 4 4 5 6 7 10 12 11 13 13 12 13 15 17 18 20 11 14 20 26 29 26 26 25 26 31 30 29 30 27
6 4 3 3 4 4 4 5 5 4 6 7 10 11 12 13 15 15 15 18 19 21 21 21 22 24 21 20 22 29 26 29 31 29 28 24 27 27
7 6 6 7 7 6 6 6 7 7 8 9 11 12 13 15 15 18 18 18 20 20 21 22 21 18 8 10 20 19 22 28 30 27 25 25 27 31
8 10 10 9 8 9 8 8 9 10 11 12 12 13 15 16 17 19 20 20 20 22 23 20 21 20 17 12 21 34 26 24 28 28 29 29 32 35
9 11 11 12 11 11 11 11 12 14 15 14 15 16 17 17 20 20 21 18 18 19 19 21 25 20 24 25 19 26 28 26 26 30 33 27 26 28
13 13 11 12 13 13 14 14 14 15 16 16 17 18 17 17 20 21 21 20 20 20 23 27 26 23 21 20 23 27 30 29 30 30 28 30 30 8
15 14 13 14 14 14 15 16 17 19 17 17 17 18 18 20 21 22 22 22 22 22 22 24 24 23 23 23 27 29 28 27 29 33 30 26 26 30

GFSNE_925_spd_081.txt.gz
Wind_Speed
8 8 10 8 9 10 9 10 5 2 2 1 3 4 6 8 9 17 19 16 11 14 16 17 17 17 14 13 13 14 12 14 15 16 16 16 16 16
6 6 4 5 4 5 4 5 5 3 2 1 2 4 7 10 15 14 16 16 15 15 13 12 12 11 11 12 13 14 14 14 14 14 15 16 16 15
1 1 1 1 1 2 3 4 4 4 3 1 0 3 5 10 12 13 13 13 12 11 11 11 10 10 11 12 13 12 13 13 13 13 15 15 16 15
3 2 2 1 1 2 2 2 2 3 4 4 2 2 2 5 5 5 5 4 4 5 6 8 8 10 11 12 12 13 13 13 12 13 14 16 16 16
5 4 4 3 5 6 6 5 5 5 3 5 4 4 3 3 3 3 1 3 6 6 7 8 9 10 12 12 10 10 11 12 14 15 15 16 16 16
11 10 9 8 8 7 7 7 6 8 8 8 7 6 4 2 2 2 3 3 5 8 11 14 11 9 11 12 12 11 13 14 15 14 14 15 15 16
15 15 14 12 9 7 6 6 5 6 6 7 6 4 3 2 1 0 2 5 10 12 8 6 10 14 12 10 11 12 13 12 12 14 16 17 17 18
14 12 9 7 9 9 9 8 6 5 5 4 3 3 1 0 1 0 3 4 4 3 9 16 13 9 7 8 10 13 14 14 14 13 13 14 15 17
11 9 7 7 6 5 5 4 6 6 5 3 2 1 1 1 1 3 4 6 7 10 15 12 8 9 8 14 19 14 9 5 6 10 14 15 17 19
10 8 8 7 7 5 4 1 1 2 3 2 3 3 3 5 6 6 6 7 11 12 4 5 10 16 21 19 10 3 3 5 13 13 14 17 18 19
8 9 6 6 5 5 4 2 1 0 0 1 1 2 2 3 6 7 9 8 7 4 6 5 8 23 21 7 1 5 8 18 14 15 16 17 19 21
5 5 4 4 4 4 5 4 2 2 3 4 4 4 4 3 4 6 6 6 4 5 3 8 11 12 10 7 2 12 20 11 18 19 20 17 18 18
2 1 1 3 6 4 4 4 3 3 5 6 3 3 3 3 3 4 5 7 6 9 10 10 7 13 9 11 19 20 12 21 27 21 19 13 13 14
1 2 4 3 4 3 4 1 2 5 5 3 3 3 4 5 7 9 9 9 11 13 13 12 12 14 18 20 16 23 28 26 21 25 16 20 21 21
2 3 5 5 5 4 1 2 5 5 4 3 3 4 6 9 9 8 8 10 13 14 16 18 22 23 19 20 22 26 21 20 27 13 22 27 27 27
5 6 4 4 4 4 4 5 4 4 4 4 4 6 7 9 9 9 12 12 14 15 12 12 14 17 22 24 23 27 24 15 21 25 27 30 31 30
5 5 4 4 5 5 5 5 5 5 5 6 7 9 11 11 11 11 11 12 15 20 21 17 12 12 18 24 27 27 26 22 23 28 30 28 30 29
7 7 6 6 6 7 7 7 6 6 7 8 10 11 12 13 14 13 14 16 18 21 21 20 18 19 17 17 17 26 20 23 28 30 27 24 27 27
10 9 9 8 9 9 9 9 8 8 9 10 11 12 14 14 14 18 17 17 20 21 21 19 20 16 8 8 15 17 23 22 28 30 26 25 27 32
9 11 12 12 11 11 11 11 11 11 12 13 14 14 14 15 17 19 19 19 20 21 22 21 21 20 16 9 16 30 26 24 25 29 30 31 30 31
12 12 12 13 14 14 14 13 14 15 13 15 15 16 17 17 19 20 20 18 18 19 19 22 24 19 21 23 16 24 28 23 25 29 31 27 29 28
17 16 15 14 15 15 15 16 17 18 18 18 17 17 17 18 19 19 20 21 21 22 24 28 27 24 21 18 21 24 27 27 28 28 25 28 29 9
18 17 17 17 16 16 17 18 19 20 20 21 20 17 16 18 19 20 22 22 22 22 23 25 25 22 21 20 23 25 28 30 28 27 29 24 26 31

GFSNE_925_spd_084.txt.gz
Wind_Speed
6 7 7 8 7 7 8 7 3 2 1 1 2 3 4 1 3 5 4 12 15 13 12 14 15 16 18 17 13 12 12 12 12 13 13 14 15 13
7 5 4 3 4 5 5 3 5 6 2 2 3 3 2 4 5 8 11 13 13 12 10 12 12 12 11 13 11 9 9 11 11 12 12 13 15 13
5 3 2 2 2 2 2 2 3 3 4 2 2 2 4 7 8 7 8 11 12 13 12 11 11 10 8 9 9 9 9 10 11 11 12 12 13 13
5 4 3 3 2 1 0 2 3 1 1 3 2 1 1 2 3 3 3 5 6 5 3 5 6 6 7 9 8 9 10 10 10 10 12 13 14 14
7 5 5 5 6 6 6 5 4 3 1 3 4 3 2 2 2 1 2 2 2 3 5 6 6 8 9 9 9 8 9 10 11 12 13 14 14 13
11 11 10 10 11 9 7 6 5 6 5 6 6 4 3 2 2 2 1 3 4 5 8 11 12 12 9 10 10 10 10 11 11 12 13 12 13 14
17 16 15 14 11 8 6 6 5 4 4 6 6 4 4 3 2 2 2 4 7 8 8 6 6 10 14 12 9 9 10 10 11 11 13 13 14 15
16 14 13 13 11 9 9 8 6 5 5 5 5 4 3 2 1 2 4 5 4 4 11 14 13 9 6 7 8 11 14 15 14 13 12 11 11 12
12 11 10 9 6 5 6 6 7 7 6 5 4 2 1 1 1 2 3 3 4 9 14 9 7 9 6 11 16 18 16 7 4 8 11 12 13 15
11 10 8 8 7 4 3 3 3 5 5 4 4 4 3 2 2 2 3 5 9 8 4 4 8 14 15 15 10 4 4 3 8 12 12 14 15 17
10 8 7 6 5 4 3 2 2 3 2 3 2 2 1 0 4 4 5 7 5 2 5 4 6 19 14 3 1 2 4 10 19 12 16 17 18 18
8 7 5 5 4 3 4 3 2 2 1 1 2 3 2 1 2 3 4 4 3 3 2 9 7 10 8 5 2 6 12 15 9 22 19 16 15 16
4 3 2 1 2 2 2 3 4 1 2 3 1 0 0 1 2 3 4 4 4 8 9 8 7 11 7 9 17 20 10 13 25 19 18 13 11 13
3 2 2 1 2 1 1 1 1 2 3 1 1 1 2 3 5 6 6 6 7 12 12 11 10 12 15 17 12 16 23 25 17 23 13 13 18 19
1 1 3 2 3 2 1 0 3 3 2 2 2 3 4 7 7 7 7 8 11 12 13 14 17 21 22 19 20 23 21 18 26 9 22 21 22 25
2 3 3 3 2 2 3 4 4 4 4 3 3 5 7 7 10 9 11 11 13 14 10 10 11 14 18 23 25 27 23 14 25 29 24 27 29 28
2 3 3 4 4 4 4 4 5 5 6 5 5 7 9 10 10 11 11 12 13 18 20 16 13 13 17 21 26 30 30 27 21 23 25 31 34 29
6 6 5 5 6 6 7 7 7 6 7 8 8 9 11 12 12 11 12 16 16 17 19 19 17 18 17 17 17 24 22 21 22 25 27 25 29 30
11 10 9 8 8 8 9 9 10 8 7 10 11 10 12 14 13 16 17 17 18 19 19 17 18 15 5 6 15 15 23 22 26 29 24 26 28 34
12 11 11 11 11 12 11 12 12 11 12 12 13 13 14 15 17 19 19 19 19 19 20 19 20 19 14 8 13 24 22 23 23 29 30 30 30 30
14 14 12 12 12 13 13 14 14 14 15 16 15 14 15 17 20 21 22 18 17 19 21 24 21 17 19 20 15 24 28 19 21 27 30 23 24 25
18 17 16 16 16 15 15 14 15 16 18 18 20 21 19 17 20 20 22 22 22 22 25 26 24 22 19 13 19 23 26 29 26 27 25 25 27 9
20 19 19 18 17 17 17 17 18 19 19 19 19 21 21 22 19 18 20 21 23 23 22 24 25 23 22 19 21 23 25 28 28 30 32 24 24 29

GFSNE_925_spd_087.txt.gz
Wind_Speed
12 9 8 6 8 6 7 7 4 2 2 2 1 3 3 3 2 1 2 6 10 12 13 11 10 11 11 13 13 10 12 11 9 8 9 10 10 11
6 4 4 3 2 2 3 4 4 4 2 2 2 3 2 2 1 1 4 7 9 9 9 10 11 10 10 10 10 8 7 8 8 9 9 9 9 10
4 5 4 4 3 3 2 2 3 3 3 2 1 2 1 2 3 4 6 8 10 11 11 10 9 9 7 5 5 5 6 7 8 9 9 10 9 8
6 6 6 5 4 3 4 3 2 3 4 5 3 2 2 0 2 3 4 5 4 4 2 2 2 2 2 3 4 6 8 8 8 8 8 9 10 10
9 8 8 6 6 6 5 4 5 4 4 5 4 3 2 1 0 1 2 2 2 2 3 4 5 6 7 7 6 6 7 8 9 10 10 10 10 10
10 9 9 8 8 8 7 7 7 7 8 8 6 4 3 2 1 0 1 2 2 3 5 7 8 10 9 7 8 9 10 10 10 10 10 9 10 11
16 15 12 11 9 8 7 7 6 6 6 5 5 3 3 2 1 0 1 4 6 5 6 5 5 7 8 10 9 8 8 8 9 9 10 11 11 12
18 16 16 15 11 10 10 10 7 6 5 4 4 3 3 2 2 1 2 3 2 3 8 8 8 4 5 6 6 8 11 12 13 11 9 8 9 10
14 14 12 10 9 8 9 9 10 8 6 4 5 3 3 3 2 1 2 2 3 6 9 4 4 3 5 8 12 15 15 9 3 4 7 9 10 13
12 11 10 9 6 5 6 5 6 6 4 4 5 4 3 2 0 1 2 4 6 5 4 4 6 6 10 10 7 3 3 7 2 8 10 10 13 15
11 10 9 8 5 5 5 5 6 5 5 4 4 3 2 1 1 2 2 3 3 1 5 3 5 10 9 3 1 3 5 7 10 13 11 17 16 16
10 9 6 6 4 2 4 4 6 5 4 2 2 2 2 1 1 2 3 2 2 2 1 7 5 7 6 4 3 4 9 12 15 12 23 15 13 13
9 8 8 4 3 3 3 5 5 5 2 2 3 3 2 2 1 1 3 4 3 4 4 7 5 7 4 7 12 12 12 6 19 17 13 14 9 9
9 8 6 5 4 4 4 5 5 3 2 3 3 3 2 2 4 5 6 5 6 9 11 9 7 8 11 14 12 8 13 15 14 16 11 9 16 16
8 7 5 5 5 5 5 6 7 3 3 3 2 2 2 4 4 6 5 7 10 11 10 11 14 14 13 13 16 17 16 11 19 8 19 21 16 17
7 7 5 6 6 6 8 7 6 5 5 5 4 3 3 3 5 6 7 8 9 8 6 10 10 14 17 17 17 21 18 12 16 18 18 17 19 19
8 7 6 8 8 7 7 7 7 7 7 6 5 3 3 5 7 7 7 8 8 10 13 12 13 14 17 19 16 20 20 19 18 19 15 21 24 18
9 8 7 8 8 8 8 9 10 9 9 9 7 6 6 7 8 8 9 10 12 11 14 15 16 15 10 13 15 18 15 17 17 16 16 19 28 20
12 10 9 9 9 10 10 11 11 10 10 10 9 9 9 9 9 10 11 14 12 12 14 15 15 9 10 8 11 14 18 17 19 20 18 17 23 30
16 14 12 11 11 13 13 12 12 13 13 13 13 13 12 11 11 11 12 15 14 14 14 13 16 14 8 8 11 19 22 24 21 22 22 21 23 27
17 15 14 12 13 13 13 14 14 15 15 15 16 17 16 13 13 13 14 15 15 15 16 15 17 15 17 18 15 21 21 17 19 24 25 23 23 24
19 18 17 16 16 16 15 15 15 16 17 17 17 18 18 18 17 15 14 15 14 14 16 21 21 16 13 10 18 21 23 22 18 22 24 25 24 9
23 21 20 19 19 18 18 18 18 17 17 18 18 18 18 20 18 16 15 15 15 15 15 17 16 15 16 16 19 22 25 25 24 25 27 22 23 26

GFSNE_925_spd_090.txt.gz
Wind_Speed
17 15 12 11 9 9 10 10 6 6 5 2 2 2 2 2 4 1 2 5 4 3 3 4 4 5 7 8 10 12 10 9 8 6 7 7 8 9
15 12 11 8 6 7 7 7 7 5 2 1 1 1 3 2 1 1 3 3 3 4 6 7 8 9 11 12 10 8 7 6 5 6 6 7 7 8
10 8 6 6 6 5 6 6 4 4 5 3 3 1 1 1 1 1 2 4 6 7 9 10 11 11 11 7 4 3 5 6 6 6 6 7 6 6
7 8 7 6 6 5 4 4 4 6 4 4 3 1 1 1 1 1 1 3 2 4 4 5 2 2 4 6 7 8 8 7 6 5 5 6 7 8
6 7 8 8 8 7 6 6 5 5 4 4 4 3 1 0 0 1 1 1 2 3 3 4 5 7 8 9 9 8 7 7 7 7 7 7 8 8
8 7 9 9 9 9 7 7 6 6 6 7 5 4 3 2 2 0 0 1 1 3 5 6 8 10 11 12 11 9 10 9 8 7 8 8 7 8
10 11 9 10 11 9 7 6 6 5 5 5 5 4 4 3 2 0 1 3 3 3 5 5 4 6 7 8 9 10 9 8 8 8 8 9 10 10
14 14 15 12 11 9 7 7 6 5 6 5 4 5 4 2 1 1 2 3 2 2 6 6 5 4 5 5 9 9 10 10 11 11 10 8 8 10
16 16 12 11 10 10 9 9 8 7 6 4 4 3 3 2 3 1 1 2 3 4 6 4 3 4 5 7 12 14 15 15 8 6 7 9 9 11
12 10 9 8 7 7 6 6 6 5 5 5 5 4 4 3 2 1 1 3 4 3 4 3 4 7 7 8 12 6 5 5 7 6 6 7 10 14
10 9 7 7 7 7 6 7 6 6 5 5 5 4 4 3 4 2 2 2 2 1 3 3 4 10 9 7 5 4 4 8 11 12 11 13 15 14
8 7 8 6 6 6 5 6 7 6 5 3 2 2 4 1 3 3 3 3 2 3 1 4 5 7 6 3 4 5 6 9 15 14 14 19 17 13
8 8 6 6 5 4 5 5 5 7 5 4 4 4 4 3 2 2 2 3 3 5 2 3 3 5 4 8 10 8 11 10 11 14 12 13 12 9
8 7 7 7 5 5 4 5 6 6 4 5 5 5 5 4 3 3 4 4 5 8 9 7 5 4 8 13 10 7 12 13 14 12 13 10 14 16
7 7 7 7 5 5 5 7 8 4 5 6 6 6 5 5 6 5 5 5 8 10 10 10 11 11 12 12 13 15 15 10 18 14 12 15 16 14
8 7 6 6 8 6 7 8 7 6 7 6 6 5 5 4 5 6 5 5 7 7 8 9 11 12 13 15 17 20 17 12 11 17 19 18 17 15
8 7 6 7 8 8 8 8 8 8 8 7 7 6 6 6 7 7 6 5 6 8 9 7 8 11 14 16 17 19 19 18 17 16 15 17 17 17
9 8 9 10 11 10 10 10 10 10 10 9 9 8 8 8 8 8 8 7 8 10 10 8 8 9 9 14 16 17 14 16 14 14 15 19 21 15
13 11 11 11 11 11 11 11 11 11 12 11 10 10 9 9 9 10 9 9 10 11 11 10 8 7 9 8 12 16 16 15 17 18 18 18 23 23
17 14 13 12 12 12 13 13 11 11 12 12 12 11 11 11 11 11 10 11 12 13 13 11 10 10 11 10 10 15 17 24 21 21 19 19 21 24
20 17 16 15 15 15 15 14 14 13 13 13 13 13 13 13 13 12 12 13 14 14 16 14 12 11 15 13 13 21 19 16 20 23 21 20 22 23
20 21 20 20 20 18 17 16 16 16 16 16 17 15 13 13 14 14 14 14 13 14 16 15 14 13 13 14 18 21 23 17 15 21 24 24 22 8
26 26 25 25 22 21 20 19 19 19 19 19 17 16 15 14 14 14 15 15 14 14 14 16 14 14 17 18 20 21 23 24 21 20 22 20 23 28

GFSNE_925_spd_093.txt.gz
Wind_Speed
19 19 17 14 12 12 11 10 5 3 5 3 3 4 1 1 2 3 6 5 4 2 2 1 2 2 4 5 7 8 9 8 7 4 5 5 6 6
16 16 15 13 11 8 9 10 10 5 2 3 4 3 1 4 2 2 1 2 2 2 3 4 4 5 6 7 8 7 6 3 2 3 5 5 5 5
11 11 9 9 7 5 7 8 9 9 4 3 5 3 2 1 1 1 2 3 3 6 6 6 6 5 6 5 2 1 2 3 4 4 5 5 4 4
11 10 10 7 5 5 6 8 7 7 7 6 6 4 3 4 3 2 1 1 1 4 4 3 4 2 3 3 4 5 6 5 4 3 4 4 6 6
8 8 7 6 7 8 9 8 8 7 8 7 6 5 3 3 2 2 2 0 1 3 3 3 4 6 6 7 7 7 6 5 5 4 4 5 5 6
8 8 7 8 8 9 9 8 7 7 7 9 5 6 5 5 5 3 2 2 1 3 5 5 7 8 9 10 10 10 8 8 7 6 6 6 5 5
7 7 8 9 11 10 7 8 9 7 8 8 6 7 6 5 3 3 2 0 3 4 3 3 6 5 6 8 6 8 8 7 6 6 7 7 7 8
11 9 10 10 9 9 10 10 9 7 8 7 6 7 6 5 4 3 2 1 0 4 4 3 8 3 5 4 9 9 9 9 9 9 10 8 7 7
14 15 12 12 10 9 10 8 7 8 7 6 6 4 6 5 6 4 3 2 1 3 6 4 4 3 5 6 10 11 13 13 12 8 8 8 8 8
12 10 9 11 9 7 6 6 6 6 7 5 6 6 5 4 3 4 2 2 2 2 3 2 4 6 6 7 12 11 5 5 6 5 7 7 8 11
9 9 8 7 8 8 7 8 6 5 6 7 6 5 6 7 6 3 2 0 0 2 2 1 4 10 9 7 7 7 3 4 7 9 11 12 13 16
8 8 9 6 8 10 6 7 8 6 5 4 4 4 4 3 5 4 2 2 1 2 2 2 5 6 6 3 4 5 4 6 9 13 11 12 15 16
9 7 7 7 6 7 8 7 7 8 8 6 6 4 5 3 3 3 3 3 3 5 3 4 3 4 4 7 11 7 8 10 10 13 12 11 11 12
9 9 8 8 6 5 7 7 9 9 7 7 7 6 6 5 4 4 5 5 6 10 11 8 5 5 6 10 8 8 11 14 14 13 12 15 10 13
9 9 8 8 6 6 7 7 9 8 7 7 7 8 7 8 8 6 4 5 7 10 12 13 14 11 11 11 13 14 15 8 19 14 10 12 16 17
9 9 7 7 7 7 8 10 11 8 8 8 7 7 8 6 4 4 5 6 9 11 9 10 11 12 14 16 16 21 17 11 13 18 19 18 17 17
10 9 9 10 11 11 10 11 11 11 12 10 9 9 8 7 6 6 7 8 10 9 9 9 10 11 15 17 18 21 22 19 17 17 17 18 18 18
12 11 12 14 14 14 14 13 14 12 12 11 11 11 10 9 8 8 9 11 12 11 11 10 10 11 12 18 20 23 19 18 14 14 15 20 24 21
15 13 14 15 16 15 14 15 15 15 13 14 14 13 12 12 10 10 10 11 13 13 13 11 11 11 10 8 13 18 21 19 18 20 18 21 25 25
19 17 16 16 16 16 17 17 16 14 16 17 16 16 15 14 13 13 13 13 12 12 12 12 13 15 15 10 10 18 15 23 24 26 25 23 24 26
21 20 19 18 18 18 18 18 17 17 17 17 17 17 17 17 16 15 15 14 14 15 16 15 15 13 13 15 16 22 23 14 18 23 25 21 22 24
22 24 23 23 22 21 20 20 19 19 18 19 19 18 18 19 18 18 17 16 16 16 17 16 15 16 16 16 20 21 23 21 18 22 23 24 23 9
26 27 26 26 25 24 23 23 22 22 22 21 21 20 20 20 19 18 17 17 17 17 17 17 15 14 18 18 21 21 23 25 23 23 24 20 23 28

GFSNE_925_spd_096.txt.gz
Wind_Speed
21 19 21 20 19 17 17 14 8 3 4 5 5 3 2 2 2 5 6 5 4 4 2 4 4 4 3 3 3 4 4 4 4 2 1 2 3 3
17 19 20 19 16 14 13 11 11 10 3 5 4 5 2 1 1 2 2 3 3 3 3 1 2 2 3 4 3 3 1 1 2 2 1 1 2 3
13 14 15 14 15 11 10 9 10 10 6 4 6 6 4 2 2 2 4 2 4 5 5 4 2 2 2 2 2 2 3 2 1 1 2 1 1 2
14 13 12 12 10 8 7 8 9 12 8 7 7 7 6 7 5 3 3 3 4 3 2 2 2 2 2 2 2 2 2 3 2 0 0 0 2 3
10 11 12 11 10 9 9 11 11 10 10 10 8 8 6 7 5 4 3 3 2 2 1 1 2 2 3 3 3 4 4 4 3 2 2 2 2 2
10 10 10 11 10 10 10 9 9 9 9 10 7 8 7 8 8 7 6 5 3 1 2 2 3 4 3 4 5 6 6 5 4 3 3 3 3 3
10 10 10 10 9 9 11 11 11 11 12 12 9 8 8 8 9 7 6 6 3 2 3 1 4 4 3 4 4 3 4 5 4 4 4 4 5 6
11 9 9 9 10 12 11 11 12 13 15 12 11 13 8 10 8 7 6 4 3 1 4 2 3 3 1 4 3 5 6 7 7 7 7 7 5 6
11 11 12 11 11 10 10 11 10 10 10 11 13 10 11 10 9 8 6 4 3 2 6 1 1 0 1 4 6 8 10 10 10 9 7 7 6 5
12 13 14 14 12 11 9 10 8 9 10 10 12 10 9 8 8 7 6 5 3 1 2 1 2 4 5 5 7 9 7 4 2 6 4 5 6 7
12 10 12 12 10 10 10 9 9 8 8 8 8 8 8 8 6 7 7 6 2 2 1 2 3 8 7 3 5 6 4 1 3 6 7 10 11 11
11 11 7 8 11 9 9 11 10 9 9 9 9 8 6 7 8 6 6 7 3 2 1 2 4 6 3 1 1 3 5 4 5 8 11 9 11 14
10 11 11 8 10 11 10 10 8 10 9 8 8 7 6 6 7 6 5 7 8 3 1 2 1 2 3 6 9 3 5 5 7 10 13 12 9 10
11 10 10 9 8 9 11 9 10 9 11 10 9 9 9 8 7 6 5 5 6 8 8 6 3 4 3 6 6 6 12 13 13 10 11 14 15 11
11 10 9 10 9 9 8 8 11 12 10 11 12 11 10 10 9 7 6 6 5 6 9 8 10 10 9 8 11 13 14 10 13 5 12 14 16 15
10 10 11 12 10 8 9 9 11 12 10 11 11 11 11 11 11 7 4 3 5 7 5 7 8 9 12 16 17 21 17 11 11 20 15 17 16 16
12 12 12 12 12 11 12 13 14 13 13 11 11 13 12 10 7 6 7 6 8 8 9 6 8 10 12 15 19 20 21 20 16 15 14 19 19 19
13 14 14 14 14 15 16 15 15 15 15 14 15 15 14 12 11 8 9 10 11 11 11 9 8 11 14 16 18 24 21 18 14 12 14 19 28 23
16 16 16 15 18 18 17 17 18 18 16 16 17 18 17 15 13 13 12 12 13 12 12 11 10 10 8 7 11 14 21 20 20 23 24 22 26 30
22 22 20 19 19 19 19 20 18 17 19 20 21 21 20 19 18 19 17 17 16 14 13 12 13 14 15 12 12 19 17 20 22 25 24 24 27 28
26 27 25 23 21 21 21 20 21 22 22 22 23 23 22 22 22 20 19 17 16 18 20 20 16 11 15 16 16 22 25 19 15 20 24 24 24 27
27 28 27 26 25 24 22 21 22 22 24 24 25 23 23 23 24 22 22 22 22 22 22 20 15 13 16 19 20 21 25 25 23 22 19 20 22 9
29 30 29 28 27 26 26 25 26 26 26 26 26 25 24 25 25 24 23 22 22 21 21 20 19 16 17 18 20 21 21 25 22 22 24 21 19 22

GFSNE_925_spd_099.txt.gz
Wind_Speed
19 20 21 21 21 19 20 20 15 4 5 8 7 7 6 5 5 5 5 4 7 6 4 3 6 6 6 5 4 3 3 3 3 2 2 1 1 1
15 18 19 19 21 19 18 19 15 10 3 9 9 9 8 7 3 3 6 6 5 5 5 3 3 3 3 3 3 3 3 3 3 3 2 1 2 2
13 15 16 18 15 17 15 14 15 13 7 5 10 10 9 7 6 4 6 6 5 5 4 3 3 2 2 3 4 5 4 4 4 2 2 2 2 0
14 14 15 14 15 13 13 11 10 10 11 10 11 11 8 9 7 6 8 7 5 3 3 4 4 4 4 4 4 3 3 3 4 3 4 2 1 1
12 14 14 14 13 13 12 12 10 11 14 11 9 11 7 12 11 8 8 7 5 4 4 3 3 3 3 4 4 4 4 5 5 4 4 4 2 0
11 11 11 12 12 12 13 12 11 13 13 13 10 11 10 13 12 13 11 9 7 5 3 3 2 3 4 5 5 6 6 5 4 3 2 2 2 1
11 11 10 11 11 12 13 13 13 13 14 15 10 8 9 13 14 13 11 11 7 5 4 5 5 2 4 4 2 2 3 4 4 4 4 3 4 3
12 10 10 8 8 7 8 10 12 15 17 14 14 14 13 13 15 14 13 9 4 5 3 4 4 2 3 1 1 1 3 5 6 6 5 5 4 5
10 8 9 10 11 10 10 10 10 11 13 14 15 16 12 15 16 14 13 10 5 5 1 4 5 3 4 2 2 4 6 7 9 9 6 6 6 6
10 11 10 11 11 12 11 10 9 9 11 11 12 12 10 12 11 12 11 10 7 4 2 4 4 4 4 4 4 4 5 3 2 6 4 3 4 5
11 11 11 12 11 10 10 11 9 9 7 8 9 9 8 9 10 12 13 13 4 4 3 2 3 2 3 4 4 2 2 1 3 4 3 6 8 8
10 9 10 12 10 10 11 12 12 11 10 11 11 11 10 8 8 8 10 13 6 4 4 2 1 1 3 4 4 3 4 4 5 5 5 5 7 10
12 12 10 10 11 10 11 13 10 11 11 10 10 10 10 9 8 7 7 8 9 3 5 3 3 0 1 2 4 3 4 4 6 7 10 11 10 9
13 12 13 10 10 11 10 9 10 12 12 12 11 11 11 10 8 5 5 5 6 6 6 5 3 4 3 2 4 4 9 11 8 6 9 9 9 10
11 11 12 12 10 9 10 9 13 13 14 13 14 13 11 9 7 5 5 4 5 6 8 10 9 8 10 7 4 9 10 4 10 2 7 14 12 11
11 12 12 13 12 11 10 11 14 14 14 15 15 12 11 11 10 7 6 3 2 3 2 5 7 7 8 12 16 20 16 9 6 13 14 12 10 11
13 13 14 14 14 14 14 15 14 14 16 15 15 15 14 12 11 10 7 7 6 4 5 5 6 8 11 12 15 16 16 15 13 14 13 16 17 18
15 17 18 17 18 19 18 17 18 19 19 17 15 16 16 14 12 11 10 9 9 9 9 8 7 8 12 13 16 18 13 14 11 11 14 18 28 22
19 18 20 20 22 21 22 22 22 22 19 20 19 20 18 16 15 16 15 13 13 13 11 9 9 10 8 4 8 10 14 12 12 15 20 22 25 26
23 24 24 23 23 23 23 23 22 20 21 21 21 21 20 20 19 20 19 18 17 16 15 13 13 14 16 7 4 8 11 17 19 21 22 21 24 25
26 29 29 27 26 24 23 23 23 23 23 23 24 24 22 22 22 22 21 20 18 19 21 21 16 10 13 14 13 14 17 15 16 17 19 21 21 21
27 30 30 30 28 26 25 24 24 24 25 26 26 24 24 24 25 24 24 23 23 23 22 19 13 12 15 18 19 20 24 22 18 18 17 20 19 7
31 31 31 30 29 27 26 27 27 27 28 28 27 26 26 27 26 26 24 24 24 23 22 21 18 16 18 20 20 21 22 24 24 22 21 16 18 22

GFSNE_925_spd_102.txt.gz
Wind_Speed
24 23 23 23 19 22 22 21 15 4 6 12 9 13 10 8 6 6 4 6 8 6 6 2 4 4 6 6 6 5 5 4 3 0 1 1 1 1
20 19 18 19 18 20 20 19 22 17 3 11 13 11 10 9 10 6 5 7 6 6 5 5 5 3 4 5 4 4 4 5 4 3 3 2 2 1
16 15 17 16 16 16 16 18 17 16 7 5 10 11 13 12 9 6 3 7 7 6 5 5 7 4 3 4 5 5 6 6 5 4 4 3 3 1
13 12 14 13 14 14 14 14 13 13 8 8 11 12 11 12 9 7 6 8 7 5 5 5 4 6 5 5 6 5 5 5 5 5 5 6 5 1
13 13 15 15 14 14 15 14 11 10 9 9 8 12 8 14 13 10 9 8 7 6 5 5 4 4 4 4 4 5 5 4 4 5 6 6 4 2
12 14 13 13 13 12 12 12 11 11 10 9 9 11 11 15 15 15 13 10 8 8 7 6 5 6 5 5 6 6 6 6 5 4 4 4 4 3
12 12 13 12 12 12 12 12 13 12 11 14 10 8 10 13 18 15 13 12 10 9 7 7 7 5 6 5 4 4 4 5 5 5 5 4 4 4
12 13 12 9 10 9 10 11 12 14 15 17 14 11 13 17 19 17 15 10 5 10 7 7 8 6 6 5 4 3 3 4 6 6 6 5 5 5
12 12 10 9 7 7 8 8 10 11 12 16 18 17 16 17 20 19 18 15 7 8 7 7 8 7 8 7 5 3 4 6 8 9 7 6 6 6
11 11 10 10 10 10 10 9 8 9 10 12 11 10 12 13 15 16 17 13 9 9 7 6 9 9 8 7 7 5 4 3 3 6 7 6 6 6
10 10 10 9 8 9 9 10 8 6 6 7 8 10 11 12 14 13 16 17 5 7 8 6 9 8 8 8 9 7 4 2 4 6 4 4 6 7
10 9 9 9 9 8 9 9 9 9 10 11 11 12 11 11 12 11 14 19 7 5 10 7 8 6 4 7 8 8 6 7 8 8 7 7 6 9
10 10 9 9 10 9 9 11 9 10 9 11 12 11 11 10 10 10 12 14 11 4 10 9 8 6 3 4 8 8 7 8 8 9 10 10 11 10
12 11 10 9 9 10 9 9 8 9 12 12 12 12 12 11 10 9 8 9 9 6 9 9 5 7 6 3 3 6 9 9 9 8 7 6 6 8
12 11 10 11 9 9 9 8 10 15 14 14 15 15 13 11 11 9 7 6 6 7 8 9 9 9 9 5 3 4 6 3 10 7 5 9 11 8
11 10 11 11 13 11 9 10 12 13 15 15 15 13 12 14 13 9 7 6 5 6 6 6 5 6 6 8 10 15 14 10 5 6 12 12 9 9
14 12 13 14 15 14 13 14 14 14 15 14 16 15 15 15 14 11 9 10 7 8 7 5 6 6 8 9 12 14 13 13 13 9 12 14 12 12
15 16 17 18 18 19 19 18 17 17 17 17 16 17 18 17 16 15 14 13 12 11 10 8 7 6 6 9 17 19 13 12 10 6 10 15 22 19
20 20 20 20 22 22 21 21 20 21 19 20 19 19 18 17 18 19 18 16 15 13 13 11 10 9 7 3 4 9 13 12 9 10 15 18 25 26
24 21 23 22 22 22 22 22 22 21 21 22 23 23 21 21 23 22 21 22 21 17 16 14 14 14 16 7 2 5 5 9 16 18 18 19 20 22
24 24 27 26 25 24 23 22 21 22 22 23 25 25 24 25 27 25 23 23 22 22 21 20 16 9 11 12 9 11 14 13 14 16 17 17 17 10
25 29 30 29 29 28 25 24 24 23 24 25 27 28 27 28 28 27 27 26 25 23 24 17 12 13 17 18 17 16 19 19 15 15 15 17 15 6
28 31 32 31 30 29 28 27 27 28 29 29 30 29 29 30 29 28 28 28 27 25 25 22 19 18 20 21 20 20 18 20 20 19 18 11 15 21

GFSNE_925_spd_105.txt.gz
Wind_Speed
22 22 22 23 22 25 25 24 15 3 6 12 11 16 14 11 9 7 6 7 8 6 4 3 5 4 4 6 7 7 6 5 5 4 4 5 3 4
18 18 19 19 19 22 21 21 22 16 3 12 16 13 15 12 11 11 7 5 9 8 5 6 5 3 3 4 4 4 5 8 9 7 6 4 5 3
13 14 16 16 16 18 17 16 18 17 7 5 11 13 16 14 14 12 8 6 8 7 6 6 7 7 4 4 5 5 5 4 4 3 3 4 5 3
13 12 13 12 15 14 13 15 14 14 8 7 10 13 14 15 14 12 9 7 8 6 6 4 5 6 6 5 5 5 5 5 6 5 5 5 4 3
12 12 11 12 14 13 13 11 11 10 8 7 7 13 9 17 15 12 11 10 10 8 7 6 6 6 5 4 4 5 6 5 4 4 5 6 5 3
12 11 12 12 12 12 12 10 9 9 8 8 7 10 12 17 18 17 13 11 10 10 9 9 7 7 7 6 5 5 6 5 5 4 4 5 5 4
11 12 12 12 11 11 11 11 9 10 9 9 9 8 10 13 20 18 16 13 10 10 10 9 8 8 8 8 6 6 6 6 6 5 5 5 5 5
13 13 13 13 11 9 9 10 12 12 14 14 14 11 15 16 21 20 17 10 6 12 11 11 10 9 8 7 6 5 5 6 6 7 6 6 6 6
13 14 13 12 11 9 8 7 8 9 11 13 17 17 16 18 20 20 19 16 8 8 13 10 9 9 9 8 8 6 5 6 8 9 8 7 7 6
12 12 12 11 11 10 11 10 9 8 9 10 12 13 13 15 18 21 21 16 11 10 12 6 10 10 10 10 9 7 5 5 6 8 8 8 7 7
12 11 11 11 10 9 9 8 7 6 5 7 8 8 8 10 15 17 18 19 5 8 12 6 10 10 10 10 11 9 6 4 4 7 7 5 4 5
11 11 9 9 8 7 7 8 7 5 4 5 7 8 9 11 13 13 16 21 7 5 13 11 11 10 5 10 12 11 9 9 10 9 8 7 7 8
11 11 9 9 8 7 8 9 7 6 7 7 8 8 9 9 10 11 13 16 15 4 12 14 12 11 5 5 10 12 11 11 11 12 12 12 11 10
12 11 10 8 8 8 9 8 8 8 10 9 9 9 9 8 8 9 10 11 12 8 9 15 5 11 9 6 4 10 13 12 10 11 11 11 11 10
12 10 10 10 9 9 9 10 8 11 10 12 13 11 10 9 10 9 9 8 7 8 10 11 9 9 9 6 4 7 5 9 11 12 10 12 10 10
13 11 11 10 11 13 10 9 11 14 14 15 14 12 11 12 13 11 9 8 7 8 8 8 8 9 10 12 12 12 10 6 5 8 11 11 10 10
14 15 13 13 13 14 13 12 12 12 14 13 14 15 14 15 15 13 9 10 9 6 10 8 6 4 5 7 10 13 12 12 12 13 14 13 11 11
13 17 17 16 17 18 17 16 15 15 16 15 15 16 17 18 17 16 14 14 13 10 12 9 7 6 6 9 16 18 16 15 10 8 8 12 15 13
18 21 22 19 20 19 19 19 20 19 19 18 18 19 18 17 17 19 17 17 15 12 10 10 11 12 6 2 2 12 13 8 8 8 8 14 19 21
21 25 24 21 21 20 20 20 21 20 19 20 21 22 21 21 21 22 22 22 19 15 14 14 17 17 15 6 3 4 8 12 12 12 16 16 20 22
24 26 26 24 24 23 21 20 20 20 20 22 24 25 25 25 25 24 23 21 19 20 21 23 21 13 14 15 10 12 13 13 15 15 15 15 16 12
25 27 28 27 27 27 25 24 23 22 22 23 24 26 26 27 28 26 25 24 21 21 25 23 18 16 20 21 17 16 17 16 13 14 15 17 14 5
27 28 29 29 28 28 27 27 26 25 25 25 26 26 27 28 28 27 26 26 25 25 25 23 20 19 22 25 22 20 21 20 18 17 19 17 20 24

GFSNE_925_spd_111.txt.gz
Wind_Speed
5 5 8 9 11 11 10 11 8 3 3 9 10 13 17 15 15 13 11 12 12 10 10 8 10 9 7 1 7 15 23 31 24 20 14 12 12 10
5 6 6 6 6 6 7 9 10 13 5 8 10 13 10 13 15 14 13 11 11 10 7 8 7 6 7 4 1 3 7 12 13 14 13 12 14 11
1 3 2 4 5 6 6 7 9 11 11 10 10 11 13 16 16 15 14 12 10 8 6 6 6 5 7 6 5 8 10 14 13 13 13 13 12 10
2 1 1 3 4 5 6 7 8 9 10 9 8 10 13 17 18 17 15 13 11 8 6 6 7 6 7 8 9 11 12 12 13 13 14 14 12 7
1 1 3 4 5 6 7 8 8 9 9 7 6 9 12 14 18 16 15 12 11 7 7 7 7 6 7 8 8 9 11 12 13 16 14 12 10 8
2 2 3 4 6 6 7 8 9 10 8 8 8 8 9 10 19 18 16 15 13 12 11 10 9 8 8 8 9 9 9 8 8 10 11 10 9 9
2 3 4 5 5 6 8 8 8 9 9 8 7 6 8 8 19 17 18 15 14 14 13 11 10 9 10 9 9 10 9 9 9 9 9 9 9 10
2 3 4 4 5 5 8 9 9 8 10 9 10 10 13 13 16 20 18 11 7 16 16 14 13 12 11 11 9 10 10 10 10 9 9 9 10 11
4 4 3 5 5 6 7 8 8 8 9 10 11 13 15 15 16 18 21 17 9 9 19 12 13 13 12 11 10 10 9 10 11 10 10 10 10 10
4 3 4 6 8 8 9 9 9 9 10 10 13 14 13 13 13 18 19 20 12 10 15 6 12 12 12 12 12 11 9 9 11 11 10 9 10 10
5 4 4 6 7 6 8 9 8 6 6 7 7 9 9 9 11 13 14 18 5 8 15 8 9 10 12 13 14 11 10 10 9 11 13 11 11 9
4 5 4 5 6 6 7 7 7 5 4 4 4 3 4 5 9 11 15 19 7 6 15 12 11 10 5 14 16 16 12 11 9 8 12 12 10 10
5 6 6 6 7 7 7 8 6 5 4 4 2 1 3 4 4 7 10 16 15 7 8 19 13 15 5 4 17 18 16 13 13 15 15 13 12 9
8 7 7 7 6 6 6 8 6 5 5 5 5 4 4 4 4 5 8 11 12 9 8 16 6 14 11 6 4 16 18 17 16 17 17 16 15 14
11 9 8 7 6 7 7 6 6 8 6 7 7 6 5 5 4 4 6 7 8 9 10 13 14 10 11 7 5 8 11 16 17 17 17 17 17 17
12 10 10 8 8 8 8 8 9 8 9 9 8 7 7 7 7 6 6 7 7 8 10 10 11 10 11 11 9 7 10 6 13 18 17 17 18 18
10 11 11 11 11 10 9 9 10 9 9 9 10 9 8 9 9 9 8 9 6 7 9 9 9 10 11 12 12 14 12 13 11 9 11 14 17 18
9 11 12 12 13 12 10 11 12 12 11 11 11 11 10 11 11 11 11 11 10 9 7 9 9 7 6 9 15 13 12 15 14 14 14 12 16 17
12 16 17 15 14 14 14 14 15 14 13 14 14 14 14 13 13 14 15 13 13 11 10 10 10 7 4 2 3 10 16 14 14 14 12 13 11 10
15 15 17 16 16 16 17 16 14 13 14 15 17 17 17 17 16 16 16 18 15 14 12 13 15 16 11 5 3 4 9 13 13 12 11 12 13 15
19 19 18 17 16 16 18 17 16 16 15 15 16 17 19 20 20 21 20 19 17 15 14 17 22 15 16 15 7 9 14 12 14 14 10 10 8 8
17 18 18 17 18 16 17 18 19 19 18 18 18 19 19 21 23 23 21 20 20 20 22 19 17 17 21 20 16 12 14 12 14 15 16 16 10 4
11 12 14 15 16 16 16 17 19 21 21 20 20 21 21 23 23 23 23 24 22 21 19 16 18 19 23 25 19 16 17 19 17 17 21 20 21 22

GFSNE_925_spd_114.txt.gz
Wind_Speed
7 7 7 8 10 10 10 10 8 6 5 8 4 8 11 13 15 15 13 14 15 14 11 8 8 9 10 11 8 9 1 15 25 30 25 21 17 13
8 7 7 6 5 5 4 6 8 10 5 5 5 9 11 12 13 13 13 14 16 13 10 9 8 8 8 6 5 1 10 20 23 20 18 19 15 13
8 6 5 5 4 4 5 5 6 8 11 11 13 15 12 13 12 15 14 14 13 13 11 7 6 6 4 4 4 2 5 6 11 13 14 15 13 11
7 6 4 3 3 3 3 6 6 6 7 10 11 12 12 11 13 14 14 13 12 10 8 6 5 5 4 5 6 10 11 11 11 12 13 13 11 9
8 7 4 2 3 3 4 6 6 6 8 8 7 9 9 11 13 14 14 14 13 11 7 6 7 7 6 7 9 10 11 11 12 13 14 16 11 9
6 5 4 3 3 4 5 6 9 9 8 9 10 10 9 9 14 17 15 14 13 13 14 11 8 7 6 6 8 10 10 12 14 16 16 12 10 10
5 4 3 5 6 5 5 5 7 7 7 7 11 7 7 8 13 14 17 14 13 15 15 13 11 10 9 9 9 9 9 9 10 12 12 11 11 11
4 2 2 3 5 7 7 4 6 6 6 9 11 10 12 9 10 14 15 10 5 16 15 15 13 13 11 11 10 10 10 10 10 9 9 9 10 11
2 2 3 4 6 6 6 7 9 7 8 12 11 9 9 11 12 12 16 15 9 7 18 10 15 13 13 12 12 11 10 11 11 10 10 10 11 12
2 1 2 4 7 6 5 7 8 10 9 11 13 14 14 13 12 13 14 15 11 9 16 7 11 11 12 11 13 11 10 10 12 11 11 10 11 11
3 2 3 4 7 8 7 8 8 8 8 8 8 9 10 10 10 12 12 14 6 9 17 7 8 9 8 8 10 12 11 11 11 12 12 11 11 12
1 2 5 6 7 5 8 7 8 6 6 7 6 6 5 4 7 9 11 15 6 5 14 13 10 8 4 9 9 12 11 12 11 11 13 14 13 10
5 6 5 5 7 10 10 11 7 5 6 6 5 4 4 4 4 5 8 13 14 5 6 18 11 11 5 3 9 14 14 11 11 11 12 14 13 11
8 5 6 5 6 9 10 10 8 6 5 6 5 6 6 5 4 4 5 9 12 12 7 14 6 14 11 5 4 13 16 15 14 14 17 17 17 14
12 8 9 6 7 8 10 8 5 6 6 5 5 8 7 7 5 4 5 6 8 9 11 14 15 10 12 6 5 7 9 16 17 17 18 19 19 16
10 10 9 8 9 9 9 7 7 8 8 6 7 7 8 7 6 5 5 5 5 6 10 12 12 11 11 11 8 7 9 5 14 18 18 18 19 19
7 7 7 10 11 9 8 7 8 9 8 8 8 8 7 7 7 7 7 7 5 5 7 9 9 10 11 11 9 11 10 11 10 11 15 16 17 17
8 6 8 11 11 10 9 9 10 10 10 9 9 9 9 8 8 8 9 9 8 7 6 7 8 6 7 9 15 11 12 12 14 14 13 11 13 14
13 13 14 15 15 12 11 11 11 10 12 13 13 11 11 10 10 9 9 10 10 9 9 9 8 9 7 3 4 16 13 13 13 13 14 13 9 7
16 18 17 15 14 15 15 16 14 13 13 14 14 14 14 13 11 12 12 12 12 11 11 10 12 14 9 4 3 5 12 14 14 13 12 11 12 13
20 21 20 19 17 16 15 15 16 17 16 15 15 15 16 15 15 15 14 14 13 12 13 15 19 14 14 12 6 6 11 11 15 14 11 9 6 8
17 18 19 19 18 16 16 16 16 17 17 17 16 16 16 17 16 16 16 16 16 17 16 14 14 14 16 13 11 9 7 9 14 16 17 16 7 5
13 14 14 15 15 15 15 15 16 18 18 18 18 18 17 16 15 15 15 17 17 17 17 14 13 14 17 16 15 15 13 13 12 15 22 23 23 24

GFSNE_925_spd_117.txt.gz
Wind_Speed
10 10 7 7 6 8 7 8 5 4 4 7 3 5 6 9 10 10 9 7 7 9 9 7 6 7 8 12 13 15 18 9 9 25 31 27 21 18
9 6 6 8 6 7 5 6 8 10 4 3 4 7 13 14 13 8 10 10 12 10 8 7 9 8 7 8 9 8 10 11 16 28 29 22 19 17
11 9 8 6 5 5 5 6 6 9 9 15 14 16 16 12 12 8 11 10 12 12 11 8 7 6 4 4 5 5 1 5 13 17 18 19 16 12
10 7 5 5 5 6 3 5 6 6 8 11 14 15 14 13 11 10 10 11 12 12 10 8 5 4 3 3 3 3 6 8 8 10 13 14 11 10
9 8 7 8 7 7 5 5 5 6 8 10 10 15 14 13 11 11 11 11 12 10 10 7 7 5 4 3 4 7 9 8 11 13 14 12 9 9
11 10 9 7 7 6 7 6 5 5 8 10 12 13 14 14 13 13 12 12 12 10 10 11 10 8 6 4 5 9 9 9 11 12 15 15 10 9
9 8 8 9 9 8 5 4 5 5 7 10 11 10 12 12 13 11 10 12 11 12 14 14 11 9 8 8 7 8 9 10 13 15 14 11 9 11
9 8 7 6 6 5 6 6 5 4 7 10 10 10 13 14 12 13 9 7 3 13 16 15 14 13 11 11 8 9 9 10 12 13 12 11 12 13
8 7 6 6 5 5 6 6 6 6 8 8 8 9 10 8 11 13 11 10 7 6 16 13 16 15 13 14 11 10 11 11 10 10 10 11 12 13
5 5 5 5 6 7 6 7 6 6 8 7 10 13 14 17 16 15 12 12 11 10 13 7 11 13 12 12 12 12 11 11 12 11 12 12 13 14
3 4 4 4 8 6 6 7 4 5 8 8 8 10 12 12 11 12 11 10 7 8 15 7 7 9 10 9 11 12 12 12 12 12 12 11 12 13
6 6 5 5 7 7 6 5 5 4 7 7 9 7 8 7 7 8 9 13 5 4 12 13 11 11 4 10 11 12 14 11 11 12 14 13 13 14
8 7 7 8 8 5 7 6 8 8 8 8 8 7 6 7 7 5 7 11 13 8 5 18 11 12 4 4 12 14 15 14 14 13 13 16 16 14
9 8 9 9 8 6 5 4 7 8 10 9 9 8 8 8 8 6 6 8 11 12 7 16 5 13 10 7 5 13 17 14 14 13 14 16 16 15
13 10 9 8 8 8 7 8 7 9 9 12 11 10 10 9 7 6 6 6 8 9 11 14 15 10 12 7 6 8 13 19 18 16 18 20 19 19
12 12 10 10 11 9 9 11 12 8 12 15 12 10 10 8 6 7 6 6 5 6 9 12 12 11 11 13 10 9 12 6 19 21 20 20 21 22
12 11 11 13 15 13 12 11 11 12 15 16 14 12 9 7 6 8 8 7 7 6 7 8 8 10 11 11 12 13 13 14 10 16 19 20 21 21
15 15 13 14 15 14 11 12 13 14 16 16 14 12 10 9 8 9 9 9 9 9 9 8 8 6 6 10 15 12 15 15 14 15 15 16 16 16
17 20 15 14 15 14 14 15 16 16 17 17 15 14 12 10 10 12 11 11 11 11 11 11 10 9 6 2 3 17 17 16 16 16 18 18 14 10
24 20 19 18 17 16 16 17 17 16 17 17 16 15 14 14 12 12 13 14 13 12 12 12 13 15 11 4 3 5 18 18 17 16 16 15 15 14
23 24 23 20 19 17 16 16 15 16 17 17 16 15 15 16 17 17 15 13 13 13 14 15 19 13 14 14 7 8 11 13 18 16 14 14 11 9
20 19 21 20 19 18 17 17 18 16 16 17 18 16 16 16 17 17 17 16 17 18 17 15 13 13 17 16 13 11 9 9 14 16 18 16 7 6
16 15 14 14 14 15 15 15 16 16 16 17 18 18 16 15 15 17 17 18 17 16 17 15 15 14 18 19 17 16 14 13 13 14 21 21 22 23

GFSNE_925_spd_120.txt.gz
Wind_Speed
10 11 12 11 10 10 7 4 1 1 2 5 2 3 5 10 14 13 7 6 7 6 6 8 5 7 8 10 12 13 16 22 18 17 24 29 27 24
11 13 13 13 11 8 7 4 5 5 2 2 8 8 13 14 13 10 8 7 7 10 10 9 9 8 9 9 10 11 11 15 9 6 25 32 27 23
16 12 12 11 8 5 4 4 3 4 6 14 14 14 16 14 14 11 9 9 9 10 11 11 10 9 8 7 7 8 7 7 12 11 24 22 22 21
17 15 13 10 7 6 6 4 4 6 7 9 12 12 12 13 14 13 11 10 10 11 10 10 9 8 6 5 5 3 4 1 2 5 13 17 14 12
15 14 12 9 8 7 6 6 7 8 7 7 8 12 13 12 10 10 12 10 10 10 9 9 8 8 7 5 4 4 5 5 7 6 9 11 8 8
18 16 15 12 11 8 6 6 8 7 5 6 9 9 9 11 13 13 12 11 11 10 9 10 10 10 7 7 6 6 6 5 8 10 12 11 10 11
15 14 11 9 8 9 9 9 9 7 3 6 9 7 10 10 9 7 10 10 11 13 10 13 14 11 9 8 7 6 7 9 9 11 13 13 10 10
14 11 8 7 6 6 6 6 7 5 7 7 7 8 9 9 8 7 8 5 3 7 12 14 14 12 12 10 9 8 8 10 11 12 13 12 10 12
13 12 10 8 7 7 5 4 5 6 8 7 10 9 7 4 6 7 9 9 7 10 8 10 16 15 14 14 12 10 10 10 12 12 13 12 11 14
11 9 8 7 7 7 7 6 6 6 7 8 10 11 10 9 9 10 10 12 12 12 10 5 9 13 14 15 14 12 12 12 12 13 13 12 13 14
10 8 9 8 7 7 6 7 6 5 7 7 7 8 8 8 7 7 8 8 5 6 11 7 6 7 10 12 13 12 13 13 13 13 13 13 14 15
11 9 8 8 8 6 7 7 7 5 8 8 7 6 5 5 7 5 6 8 7 3 6 11 8 8 4 10 12 11 13 13 13 14 14 13 12 15
12 12 11 12 10 9 9 10 11 10 9 9 7 5 5 6 5 6 6 8 10 10 6 11 8 11 5 3 11 12 15 17 15 14 14 16 15 16
15 13 12 11 10 8 10 10 10 9 10 8 6 5 7 7 8 7 7 6 9 11 13 10 6 14 8 5 5 11 16 18 17 18 17 17 17 17
15 13 12 11 10 10 9 8 8 12 11 10 8 5 7 9 10 8 8 6 7 9 10 13 18 11 13 8 4 9 13 21 20 17 16 17 20 21
17 15 14 13 13 11 9 9 11 12 11 12 11 8 8 10 10 7 7 6 7 9 10 12 14 14 14 14 12 10 13 7 20 21 20 20 23 22
17 17 17 16 15 14 13 13 11 10 12 13 12 12 13 11 8 6 8 7 8 5 8 10 11 13 14 14 16 16 14 17 12 17 22 22 24 25
20 22 20 18 16 15 15 14 13 12 13 12 13 14 15 11 9 8 9 12 14 10 11 9 9 9 9 13 18 16 17 17 15 13 16 21 23 23
19 21 20 16 15 16 15 15 15 13 13 14 16 17 15 12 9 10 12 11 14 13 12 12 12 11 3 2 4 17 21 20 17 16 18 19 17 13
23 21 20 19 19 18 17 18 18 16 16 16 17 17 18 16 14 12 13 17 16 15 14 15 17 17 15 6 3 4 14 20 19 20 19 19 18 16
21 22 24 23 23 22 20 18 17 17 17 16 18 19 18 17 18 19 18 14 15 17 18 20 20 14 15 16 11 12 12 11 18 17 14 14 13 13
22 23 25 26 25 22 20 20 20 21 19 18 17 18 18 18 19 19 19 19 20 20 21 18 15 14 18 18 18 16 12 10 12 18 17 17 7 6
20 19 19 19 19 18 18 20 19 19 17 18 19 19 17 18 17 17 18 18 19 18 18 19 17 17 19 19 19 19 17 16 14 15 21 22 22 21

GFSNE_925_spd_123.txt.gz
Wind_Speed
12 13 14 11 9 9 9 9 6 2 2 3 3 3 1 7 9 10 7 6 6 6 5 8 11 8 8 11 13 14 16 17 21 20 18 20 22 25
11 16 11 7 7 9 9 10 10 9 3 5 3 3 4 10 12 10 8 8 7 7 9 10 9 9 9 10 10 10 14 15 20 21 15 18 23 26
14 10 7 9 10 8 8 9 10 11 8 5 4 3 7 11 12 10 11 10 10 8 10 11 12 12 12 10 9 8 10 9 12 19 7 18 25 26
10 7 12 11 10 10 11 11 11 10 7 3 4 6 8 11 13 10 8 10 12 10 10 12 13 11 9 8 7 5 5 5 7 7 20 21 25 24
13 14 15 14 12 12 11 12 12 9 7 4 6 9 9 10 12 12 11 12 12 12 11 12 11 10 11 8 6 5 4 4 5 4 2 2 5 7
19 17 18 17 15 15 14 12 9 8 7 6 8 9 8 8 10 11 13 12 12 11 12 13 12 13 11 10 8 5 4 4 4 4 5 6 5 6
20 19 19 17 16 14 13 10 9 8 7 9 7 6 7 5 6 6 10 13 14 12 11 12 14 16 14 11 9 5 5 6 6 7 9 7 6 6
22 19 16 16 15 13 11 10 10 10 11 11 10 10 9 6 7 8 9 7 4 4 7 12 15 17 15 12 10 8 8 7 9 10 9 9 10 9
21 19 18 15 14 11 9 9 9 9 9 10 11 11 8 7 8 9 10 10 8 10 8 10 13 18 17 15 14 12 9 9 9 10 12 10 10 11
20 19 18 16 12 11 11 10 10 9 9 7 9 8 9 10 12 13 11 13 13 14 11 5 10 14 16 17 16 14 12 11 10 9 10 10 10 12
18 17 15 13 12 11 10 10 9 7 7 5 5 7 8 9 8 10 11 11 6 6 9 7 9 10 10 15 15 14 13 12 11 11 11 11 11 13
15 14 13 12 12 11 8 7 7 8 8 8 7 8 9 8 7 8 10 11 9 4 8 10 7 7 4 10 11 11 13 13 11 11 11 12 13 15
18 16 15 14 14 10 8 8 7 6 7 8 9 9 9 9 9 8 8 9 12 14 7 7 4 7 6 3 4 10 13 13 13 12 13 14 13 14
17 16 16 15 13 11 10 8 8 8 9 10 11 10 10 10 9 9 9 9 10 13 15 10 7 12 8 3 4 7 14 13 15 15 15 16 16 15
15 15 14 14 13 11 9 9 9 11 12 13 14 12 10 9 9 9 9 10 9 10 11 12 14 12 13 8 3 6 6 12 16 19 18 18 19 18
14 15 16 15 13 13 12 11 12 14 16 17 16 11 10 11 9 9 8 9 9 10 11 10 12 14 17 17 15 14 10 5 7 19 18 16 17 21
21 19 19 20 18 17 15 15 16 17 17 16 16 15 13 11 11 9 9 8 9 6 8 6 10 11 14 16 16 18 15 14 13 9 19 20 19 20
19 23 22 24 24 24 21 20 19 18 17 17 18 15 16 13 12 10 9 8 9 11 9 8 8 8 10 15 21 21 16 17 15 13 13 20 23 24
18 20 21 23 23 24 23 24 22 19 17 16 15 16 14 14 13 11 9 11 9 11 11 11 12 9 3 3 5 10 20 16 14 14 16 17 19 16
17 20 22 22 24 25 26 25 21 17 17 18 17 15 16 16 16 16 15 12 10 14 14 13 17 18 17 6 4 3 5 14 16 16 17 17 18 17
22 23 23 24 24 24 24 22 18 16 17 18 18 17 17 18 17 17 18 14 12 13 17 20 18 13 15 16 11 13 14 11 11 15 14 15 13 12
22 24 24 24 23 23 23 21 18 17 18 18 19 19 17 18 17 16 15 17 21 21 21 18 13 13 15 13 13 13 13 12 10 12 15 16 6 6
16 18 18 19 20 20 19 18 20 19 20 20 19 19 17 15 16 16 17 17 21 21 20 21 18 16 17 17 16 15 17 17 15 13 17 19 20 22